W4HSV Weather Reports


Display with metric or nautical units.
time (UTC)temp
F
wind
direction
speed
MPH
gust
MPH
rain 1hr
in
rain 24hr
in
rain mn
in
humidity
%
barometer
mb
20260508164115 69 114 4.0 10.0 0.00 0.00 0.00 44 1015.9
20260508164022 69 140 3.0 10.0 0.00 0.00 0.00 45 1015.9
20260508163929 69 142 2.0 9.0 0.00 0.00 0.00 46 1016.0
20260508163817 69 52 4.0 9.0 0.00 0.00 0.00 47 1015.9
20260508163725 69 5 5.0 9.0 0.00 0.00 0.00 46 1015.9
20260508163614 69 24 6.0 9.0 0.00 0.00 0.00 46 1016.0
20260508163548 68 355 6.0 9.0 0.00 0.00 0.00 48 1016.0
20260508163321 68 71 4.0 12.0 0.00 0.00 0.00 48 1016.0
20260508163227 68 148 3.0 12.0 0.00 0.00 0.00 47 1015.9
20260508163115 68 57 4.0 12.0 0.00 0.00 0.00 46 1015.9
20260508163028 68 115 4.0 12.0 0.00 0.00 0.00 46 1015.9
20260508162916 68 180 4.0 12.0 0.00 0.00 0.00 46 1015.8
20260508162824 68 167 5.0 12.0 0.00 0.00 0.00 47 1015.8
20260508162712 68 133 7.0 12.0 0.00 0.00 0.00 47 1015.9
20260508162619 68 148 7.0 12.0 0.00 0.00 0.00 47 1015.9
20260508162526 68 170 7.0 15.0 0.00 0.00 0.00 47 1015.9
20260508162438 68 154 6.0 15.0 0.00 0.00 0.00 47 1015.9
20260508162324 68 158 5.0 15.0 0.00 0.00 0.00 46 1015.9
20260508162212 68 238 7.0 15.0 0.00 0.00 0.00 46 1015.9
20260508162120 68 192 8.0 15.0 0.00 0.00 0.00 47 1015.9
20260508162054 68 203 8.0 15.0 0.00 0.00 0.00 46 1015.9
20260508161829 69 143 9.0 15.0 0.00 0.00 0.00 47 1016.0
20260508161716 69 148 6.0 15.0 0.00 0.00 0.00 48 1016.1
20260508161623 69 159 3.0 12.0 0.00 0.00 0.00 50 1016.1
20260508161530 68 247 3.0 12.0 0.00 0.00 0.00 47 1016.2
20260508161418 68 205 3.0 12.0 0.00 0.00 0.00 46 1016.1
20260508161329 69 225 3.0 12.0 0.00 0.00 0.00 45 1016.1
20260508161217 69 140 6.0 12.0 0.00 0.00 0.00 46 1016.2
20260508161145 69 141 8.0 12.0 0.00 0.00 0.00 48 1016.2
20260508161012 68 133 7.0 11.0 0.00 0.00 0.00 49 1016.2
20260508160920 68 108 5.0 11.0 0.00 0.00 0.00 47 1016.2
20260508160827 68 228 4.0 11.0 0.00 0.00 0.00 48 1016.2
20260508160718 69 153 5.0 11.0 0.00 0.00 0.00 48 1016.1
20260508160645 69 154 6.0 11.0 0.00 0.00 0.00 46 1016.1
20260508160615 69 211 6.0 12.0 0.00 0.00 0.00 47 1016.1
20260508160329 69 146 5.0 12.0 0.00 0.00 0.00 47 1016.2
20260508160222 69 120 6.0 12.0 0.00 0.00 0.00 47 1016.2
20260508160129 69 130 6.0 12.0 0.00 0.00 0.00 46 1016.3
20260508160017 69 106 7.0 12.0 0.00 0.00 0.00 48 1016.4
20260508155943 69 76 7.0 12.0 0.00 0.00 0.00 49 1016.4
20260508155829 68 109 6.0 12.0 0.00 0.00 0.00 48 1016.3
20260508155717 68 113 6.0 12.0 0.00 0.00 0.00 49 1016.4
20260508155629 68 136 4.0 11.0 0.00 0.00 0.00 49 1016.4
20260508155515 68 153 4.0 11.0 0.00 0.00 0.00 49 1016.5
20260508155442 68 175 6.0 11.0 0.00 0.00 0.00 48 1016.5
20260508155329 68 130 6.0 11.0 0.00 0.00 0.00 48 1016.5
20260508155216 68 114 5.0 11.0 0.00 0.00 0.00 48 1016.5
20260508155142 68 132 4.0 12.0 0.00 0.00 0.00 47 1016.5
20260508155117 68 111 6.0 12.0 0.00 0.00 0.00 47 1016.5
20260508154830 68 76 5.0 12.0 0.00 0.00 0.00 47 1016.4
20260508154716 68 130 6.0 12.0 0.00 0.00 0.00 46 1016.4
20260508154625 68 136 5.0 12.0 0.00 0.00 0.00 47 1016.4
20260508154512 68 129 5.0 12.0 0.00 0.00 0.00 47 1016.4
20260508154423 68 86 6.0 12.0 0.00 0.00 0.00 46 1016.4
20260508154351 68 71 6.0 13.0 0.00 0.00 0.00 46 1016.4
20260508154217 68 66 6.0 13.0 0.00 0.00 0.00 45 1016.5
20260508154124 68 111 5.0 13.0 0.00 0.00 0.00 46 1016.5
20260508154033 68 162 5.0 13.0 0.00 0.00 0.00 47 1016.6
20260508153919 68 126 4.0 13.0 0.00 0.00 0.00 47 1016.5
20260508153846 68 203 4.0 13.0 0.00 0.00 0.00 46 1016.5
20260508153717 68 66 5.0 13.0 0.00 0.00 0.00 47 1016.4
20260508153625 68 85 5.0 13.0 0.00 0.00 0.00 46 1016.4
20260508153556 68 77 5.0 11.0 0.00 0.00 0.00 48 1016.4
20260508153351 67 66 6.0 11.0 0.00 0.00 0.00 48 1016.5
20260508153238 67 109 6.0 11.0 0.00 0.00 0.00 47 1016.5
20260508153128 67 130 5.0 11.0 0.00 0.00 0.00 48 1016.5
20260508153014 67 98 2.0 9.0 0.00 0.00 0.00 49 1016.5
20260508152941 67 117 2.0 10.0 0.00 0.00 0.00 50 1016.5
20260508152847 67 104 3.0 10.0 0.00 0.00 0.00 50 1016.6
20260508152714 67 137 5.0 10.0 0.00 0.00 0.00 49 1016.6
20260508152621 67 114 5.0 10.0 0.00 0.00 0.00 50 1016.6
20260508152513 67 134 5.0 10.0 0.00 0.00 0.00 50 1016.7
20260508152420 66 136 5.0 10.0 0.00 0.00 0.00 48 1016.7
20260508152347 66 109 4.0 10.0 0.00 0.00 0.00 47 1016.7
20260508152213 66 146 4.0 10.0 0.00 0.00 0.00 49 1016.6
20260508152121 66 151 3.0 10.0 0.00 0.00 0.00 49 1016.6
20260508152056 66 180 3.0 10.0 0.00 0.00 0.00 50 1016.7
20260508151830 66 98 3.0 10.0 0.00 0.00 0.00 49 1016.6
20260508151717 66 138 5.0 10.0 0.00 0.00 0.00 49 1016.6
20260508151624 66 161 5.0 10.0 0.00 0.00 0.00 48 1016.6
20260508151511 66 224 4.0 10.0 0.00 0.00 0.00 49 1016.7
20260508151423 66 167 5.0 10.0 0.00 0.00 0.00 51 1016.7
20260508151331 66 134 6.0 10.0 0.00 0.00 0.00 50 1016.7
20260508151239 67 150 8.0 10.0 0.00 0.00 0.00 51 1016.7
20260508151124 67 136 7.0 10.0 0.00 0.00 0.00 50 1016.7
20260508151012 67 163 5.0 10.0 0.00 0.00 0.00 51 1016.8
20260508150920 67 165 3.0 8.0 0.00 0.00 0.00 49 1016.8
20260508150848 67 142 2.0 8.0 0.00 0.00 0.00 50 1016.8
20260508150718 67 120 2.0 8.0 0.00 0.00 0.00 50 1016.9
20260508150645 67 146 3.0 8.0 0.00 0.00 0.00 50 1016.9
20260508150616 67 132 4.0 9.0 0.00 0.00 0.00 48 1016.8
20260508150329 67 150 3.0 10.0 0.00 0.00 0.00 50 1016.9
20260508150221 67 80 3.0 10.0 0.00 0.00 0.00 50 1016.9
20260508150128 67 120 4.0 10.0 0.00 0.00 0.00 51 1017.0
20260508150017 67 124 4.0 10.0 0.00 0.00 0.00 49 1017.1
20260508145926 67 75 4.0 10.0 0.00 0.00 0.00 50 1017.1
20260508145813 67 71 5.0 10.0 0.00 0.00 0.00 52 1017.1
20260508145721 66 94 5.0 10.0 0.00 0.00 0.00 49 1017.1
20260508145611 66 103 6.0 10.0 0.00 0.00 0.00 50 1017.1
20260508145519 66 67 5.0 10.0 0.00 0.00 0.00 49 1017.0
20260508145426 66 52 5.0 10.0 0.00 0.00 0.00 49 1017.0
20260508145313 66 74 4.0 10.0 0.00 0.00 0.00 50 1017.0
20260508145222 66 101 5.0 10.0 0.00 0.00 0.00 49 1017.0
20260508145135 66 53 6.0 10.0 0.00 0.00 0.00 49 1017.0
20260508145103 66 34 6.0 9.0 0.00 0.00 0.00 49 1017.1
20260508144817 66 82 6.0 9.0 0.00 0.00 0.00 51 1017.1
20260508144745 66 96 5.0 9.0 0.00 0.00 0.00 51 1017.1
20260508144611 66 85 4.0 9.0 0.00 0.00 0.00 49 1017.1
20260508144523 66 126 5.0 9.0 0.00 0.00 0.00 49 1017.1
20260508144431 66 207 4.0 9.0 0.00 0.00 0.00 48 1017.1
20260508144318 65 88 3.0 9.0 0.00 0.00 0.00 51 1017.2
20260508144226 65 74 3.0 9.0 0.00 0.00 0.00 52 1017.2
20260508144113 65 105 5.0 9.0 0.00 0.00 0.00 54 1017.2
20260508144024 65 119 5.0 9.0 0.00 0.00 0.00 53 1017.2
20260508143930 65 110 3.0 9.0 0.00 0.00 0.00 53 1017.1
20260508143818 65 117 3.0 9.0 0.00 0.00 0.00 53 1017.1
20260508143727 65 142 3.0 9.0 0.00 0.00 0.00 51 1017.1
20260508143634 65 84 5.0 9.0 0.00 0.00 0.00 56 1017.2
20260508143548 65 132 6.0 10.0 0.00 0.00 0.00 56 1017.2
20260508143321 64 94 7.0 10.0 0.00 0.00 0.00 54 1017.1
20260508143229 64 109 7.0 10.0 0.00 0.00 0.00 55 1017.2
20260508143118 64 111 5.0 10.0 0.00 0.00 0.00 57 1017.2
20260508143046 64 111 4.0 10.0 0.00 0.00 0.00 56 1017.2
20260508142912 64 157 4.0 10.0 0.00 0.00 0.00 55 1017.2
20260508142822 64 145 5.0 10.0 0.00 0.00 0.00 56 1017.2
20260508142730 64 144 6.0 10.0 0.00 0.00 0.00 54 1017.2
20260508142617 64 150 4.0 10.0 0.00 0.00 0.00 59 1017.3
20260508142525 64 132 3.0 8.0 0.00 0.00 0.00 58 1017.3
20260508142412 64 78 3.0 9.0 0.00 0.00 0.00 58 1017.3
20260508142340 64 126 2.0 9.0 0.00 0.00 0.00 58 1017.4
20260508142211 64 42 3.0 9.0 0.00 0.00 0.00 58 1017.3
20260508142138 64 61 3.0 9.0 0.00 0.00 0.00 58 1017.3
20260508142109 64 74 4.0 9.0 0.00 0.00 0.00 56 1017.4
20260508141822 64 123 5.0 9.0 0.00 0.00 0.00 57 1017.4
20260508141713 64 86 6.0 9.0 0.00 0.00 0.00 57 1017.3
20260508141619 64 117 6.0 9.0 0.00 0.00 0.00 57 1017.4
20260508141527 64 121 6.0 9.0 0.00 0.00 0.00 59 1017.4
20260508141414 64 155 5.0 9.0 0.00 0.00 0.00 58 1017.2
20260508141321 64 123 4.0 9.0 0.00 0.00 0.00 59 1017.2
20260508141229 64 113 2.0 5.0 0.00 0.00 0.00 59 1017.2
20260508141122 64 102 2.0 5.0 0.00 0.00 0.00 59 1017.2
20260508141030 64 360 3.0 5.0 0.00 0.00 0.00 59 1017.2
20260508140936 64 66 3.0 5.0 0.00 0.00 0.00 59 1017.2
20260508140822 64 74 3.0 7.0 0.00 0.00 0.00 61 1017.2
20260508140731 64 78 2.0 7.0 0.00 0.00 0.00 60 1017.2
20260508140637 63 83 3.0 7.0 0.00 0.00 0.00 61 1017.1
20260508140551 63 76 3.0 7.0 0.00 0.00 0.00 61 1017.1
20260508140345 63 115 3.0 7.0 0.00 0.00 0.00 62 1017.2
20260508140211 63 98 2.0 7.0 0.00 0.00 0.00 62 1017.2
20260508140119 63 67 2.0 7.0 0.00 0.00 0.00 62 1017.2
20260508140027 63 81 3.0 7.0 0.00 0.00 0.00 62 1017.2
20260508135917 63 76 3.0 7.0 0.00 0.00 0.00 63 1017.2
20260508135824 63 115 2.0 7.0 0.00 0.00 0.00 65 1017.2
20260508135712 62 26 1.0 7.0 0.00 0.00 0.00 65 1017.2
20260508135619 62 73 1.0 7.0 0.00 0.00 0.00 63 1017.2
20260508135527 62 93 2.0 7.0 0.00 0.00 0.00 63 1017.2
20260508135419 62 119 3.0 7.0 0.00 0.00 0.00 63 1017.2
20260508135326 62 105 3.0 7.0 0.00 0.00 0.00 63 1017.2
20260508135213 62 132 3.0 7.0 0.00 0.00 0.00 63 1017.2
20260508135121 62 112 3.0 7.0 0.00 0.00 0.00 63 1017.2
20260508135052 62 109 3.0 7.0 0.00 0.00 0.00 65 1017.2
20260508134830 62 99 3.0 7.0 0.00 0.00 0.00 65 1017.1
20260508134717 62 101 3.0 7.0 0.00 0.00 0.00 63 1017.1
20260508134625 62 149 3.0 5.0 0.00 0.00 0.00 64 1017.1
20260508134513 62 151 2.0 4.0 0.00 0.00 0.00 65 1017.1
20260508134419 62 148 2.0 4.0 0.00 0.00 0.00 64 1017.1
20260508134346 62 115 2.0 4.0 0.00 0.00 0.00 65 1017.1
20260508134216 62 82 2.0 4.0 0.00 0.00 0.00 66 1017.2
20260508134123 62 67 2.0 4.0 0.00 0.00 0.00 66 1017.2
20260508134051 62 77 2.0 4.0 0.00 0.00 0.00 66 1017.2
20260508133918 62 65 2.0 4.0 0.00 0.00 0.00 65 1017.2
20260508133826 62 144 2.0 4.0 0.00 0.00 0.00 66 1017.2
20260508133717 62 149 2.0 6.0 0.00 0.00 0.00 66 1017.1
20260508133623 62 128 2.0 6.0 0.00 0.00 0.00 65 1017.1
20260508133554 61 128 2.0 6.0 0.00 0.00 0.00 65 1017.2
20260508133348 61 167 2.0 6.0 0.00 0.00 0.00 65 1017.3
20260508133214 61 119 2.0 6.0 0.00 0.00 0.00 64 1017.3
20260508133125 61 166 2.0 6.0 0.00 0.00 0.00 66 1017.3
20260508133013 61 111 2.0 6.0 0.00 0.00 0.00 67 1017.4
20260508132921 61 67 2.0 6.0 0.00 0.00 0.00 68 1017.4
20260508132829 61 133 2.0 6.0 0.00 0.00 0.00 69 1017.4
20260508132717 60 107 2.0 4.0 0.00 0.00 0.00 69 1017.4
20260508132625 60 107 2.0 4.0 0.00 0.00 0.00 69 1017.4
20260508132516 60 101 2.0 4.0 0.00 0.00 0.00 69 1017.5
20260508132423 60 117 2.0 4.0 0.00 0.00 0.00 70 1017.5
20260508132311 60 173 1.0 4.0 0.00 0.00 0.00 69 1017.5
20260508132220 60 167 1.0 4.0 0.00 0.00 0.00 68 1017.5
20260508132127 60 190 1.0 5.0 0.00 0.00 0.00 69 1017.4
20260508132102 60 132 2.0 5.0 0.00 0.00 0.00 70 1017.4
20260508131815 59 110 2.0 5.0 0.00 0.00 0.00 69 1017.4
20260508131722 59 153 2.0 5.0 0.00 0.00 0.00 71 1017.4
20260508131630 59 123 2.0 5.0 0.00 0.00 0.00 71 1017.3
20260508131537 59 111 2.0 5.0 0.00 0.00 0.00 70 1017.3
20260508131428 59 112 2.0 5.0 0.00 0.00 0.00 70 1017.3
20260508131316 59 112 2.0 5.0 0.00 0.00 0.00 70 1017.4
20260508131224 59 132 3.0 5.0 0.00 0.00 0.00 70 1017.4
20260508131130 59 156 4.0 5.0 0.00 0.00 0.00 71 1017.4
20260508131017 59 156 4.0 6.0 0.00 0.00 0.00 71 1017.4
20260508130927 59 156 3.0 5.0 0.00 0.00 0.00 71 1017.4
20260508130814 59 113 3.0 5.0 0.00 0.00 0.00 73 1017.2
20260508130742 59 126 3.0 5.0 0.00 0.00 0.00 72 1017.2
20260508130628 58 119 3.0 5.0 0.00 0.00 0.00 72 1017.2
20260508130559 58 127 3.0 5.0 0.00 0.00 0.00 74 1017.2
20260508130318 58 136 2.0 5.0 0.00 0.00 0.00 74 1017.2
20260508130224 58 150 1.0 5.0 0.00 0.00 0.00 75 1017.2
20260508130111 58 101 1.0 5.0 0.00 0.00 0.00 75 1017.0
20260508130019 58 115 2.0 5.0 0.00 0.00 0.00 74 1017.1
20260508125926 58 112 3.0 5.0 0.00 0.00 0.00 74 1017.1
20260508125834 58 115 3.0 5.0 0.00 0.00 0.00 76 1017.1
20260508125724 57 141 3.0 5.0 0.00 0.00 0.00 75 1017.1
20260508125651 57 142 3.0 5.0 0.00 0.00 0.00 76 1017.1
20260508125518 57 128 3.0 5.0 0.00 0.00 0.00 76 1017.0
20260508125426 57 106 3.0 5.0 0.00 0.00 0.00 76 1017.0
20260508125334 57 137 3.0 5.0 0.00 0.00 0.00 76 1017.0
20260508125220 57 137 4.0 5.0 0.00 0.00 0.00 76 1017.0
20260508125113 57 141 4.0 5.0 0.00 0.00 0.00 77 1017.0
20260508125045 57 135 4.0 6.0 0.00 0.00 0.00 77 1017.0
20260508124817 56 146 2.0 4.0 0.00 0.00 0.00 79 1016.9
20260508124726 56 126 1.0 4.0 0.00 0.00 0.00 79 1016.9
20260508124618 56 126 2.0 4.0 0.00 0.00 0.00 79 1017.0
20260508124525 56 126 3.0 4.0 0.00 0.00 0.00 80 1017.0
20260508124413 55 141 3.0 4.0 0.00 0.00 0.00 80 1016.9
20260508124341 55 140 3.0 4.0 0.00 0.00 0.00 81 1016.9
20260508124226 55 115 2.0 3.0 0.00 0.00 0.00 82 1016.9
20260508124133 55 104 2.0 3.0 0.00 0.00 0.00 83 1016.8
20260508124018 54 104 2.0 3.0 0.00 0.00 0.00 84 1016.9
20260508123949 54 137 1.0 3.0 0.00 0.00 0.00 85 1016.9
20260508123815 54 101 0.0 2.0 0.00 0.00 0.00 85 1016.9
20260508123721 53 49 0.0 0.0 0.00 0.00 0.00 86 1016.9
20260508123628 53 49 0.0 0.0 0.00 0.00 0.00 87 1016.9
20260508123557 53 49 0.0 0.0 0.00 0.00 0.00 89 1016.9
20260508123334 52 49 0.0 0.0 0.00 0.00 0.00 88 1017.0
20260508123241 52 44 0.0 0.0 0.00 0.00 0.00 88 1017.0
20260508123127 52 24 0.0 0.0 0.00 0.00 0.00 88 1017.0
20260508123015 52 24 0.0 0.0 0.00 0.00 0.00 89 1017.1
20260508122924 52 24 0.0 0.0 0.00 0.00 0.00 89 1017.1
20260508122851 52 24 0.0 0.0 0.00 0.00 0.00 89 1017.1
20260508122720 52 24 0.0 0.0 0.00 0.00 0.00 90 1017.1
20260508122628 51 24 0.0 0.0 0.00 0.00 0.00 90 1017.1
20260508122515 51 24 0.0 0.0 0.00 0.00 0.00 90 1017.1
20260508122422 51 24 0.0 0.0 0.00 0.00 0.00 91 1017.1
20260508122330 51 24 0.0 1.0 0.00 0.00 0.00 91 1017.1
20260508122238 51 24 0.0 2.0 0.00 0.00 0.00 92 1017.1
20260508122128 51 24 0.0 2.0 0.00 0.00 0.00 92 1017.1
20260508122059 51 24 0.0 2.0 0.00 0.00 0.00 92 1017.2
20260508121813 50 24 0.0 2.0 0.00 0.00 0.00 93 1017.0
20260508121742 50 38 0.0 2.0 0.00 0.00 0.00 92 1017.0
20260508121628 50 38 0.0 3.0 0.00 0.00 0.00 93 1017.1
20260508121519 50 37 1.0 3.0 0.00 0.00 0.00 93 1017.1
20260508121426 50 26 1.0 3.0 0.00 0.00 0.00 93 1017.1
20260508121312 50 5 1.0 3.0 0.00 0.00 0.00 93 1017.1
20260508121220 50 34 1.0 3.0 0.00 0.00 0.00 93 1017.1
20260508121126 49 11 1.0 3.0 0.00 0.00 0.00 93 1017.1
20260508121035 49 19 0.0 3.0 0.00 0.00 0.00 93 1017.1
20260508120925 49 18 1.0 3.0 0.00 0.00 0.00 93 1017.1
20260508120812 49 24 1.0 3.0 0.00 0.00 0.00 93 1017.1
20260508120719 49 34 0.0 2.0 0.00 0.00 0.00 93 1017.1
20260508120626 49 9 0.0 2.0 0.00 0.00 0.00 93 1017.1
20260508120601 49 9 1.0 2.0 0.00 0.00 0.00 93 1017.1
20260508120314 49 9 1.0 2.0 0.00 0.00 0.00 93 1017.1
20260508120242 49 9 1.0 2.0 0.00 0.00 0.00 93 1017.1
20260508120128 49 344 0.0 2.0 0.00 0.00 0.00 93 1017.1
20260508120016 49 13 0.0 2.0 0.00 0.00 0.00 93 1017.1
20260508115923 49 13 0.0 2.0 0.00 0.00 0.00 93 1017.1
20260508115814 48 13 1.0 2.0 0.00 0.00 0.00 93 1017.1
20260508115723 48 13 1.0 3.0 0.00 0.00 0.00 93 1017.1
20260508115651 48 13 1.0 3.0 0.00 0.00 0.00 93 1017.1
20260508115517 48 13 0.0 3.0 0.00 0.00 0.00 93 1017.1
20260508115423 48 13 0.0 3.0 0.00 0.00 0.00 93 1017.1
20260508115330 48 13 0.0 3.0 0.00 0.00 0.00 93 1017.1
20260508115221 48 13 1.0 3.0 0.00 0.00 0.00 93 1017.1
20260508115149 48 13 1.0 3.0 0.00 0.00 0.00 93 1017.0
20260508115058 48 13 1.0 3.0 0.00 0.00 0.00 93 1017.1
20260508114812 48 360 1.0 3.0 0.00 0.00 0.00 93 1016.9
20260508114720 48 348 1.0 3.0 0.00 0.00 0.00 93 1016.9
20260508114611 48 348 1.0 3.0 0.00 0.00 0.00 92 1017.0
20260508114519 48 348 0.0 3.0 0.00 0.00 0.00 92 1016.9
20260508114426 48 348 0.0 3.0 0.00 0.00 0.00 92 1016.9
20260508114315 48 348 1.0 3.0 0.00 0.00 0.00 92 1016.8
20260508114222 48 348 1.0 3.0 0.00 0.00 0.00 92 1016.8
20260508114112 48 348 2.0 3.0 0.00 0.00 0.00 92 1016.8
20260508114019 48 348 2.0 3.0 0.00 0.00 0.00 92 1016.8
20260508113947 48 348 1.0 2.0 0.00 0.00 0.00 92 1016.8
20260508113834 48 319 1.0 2.0 0.00 0.00 0.00 92 1016.7
20260508113720 48 319 1.0 2.0 0.00 0.00 0.00 92 1016.7
20260508113647 48 319 1.0 2.0 0.00 0.00 0.00 92 1016.7
20260508113602 48 319 1.0 2.0 0.00 0.00 0.00 92 1016.7
20260508113314 47 319 1.0 2.0 0.00 0.00 0.00 92 1016.7
20260508113221 48 319 1.0 1.0 0.00 0.00 0.00 92 1016.7
20260508113130 48 319 1.0 1.0 0.00 0.00 0.00 92 1016.7
20260508113037 48 319 1.0 1.0 0.00 0.00 0.00 92 1016.6
20260508112923 47 319 1.0 1.0 0.00 0.00 0.00 92 1016.6
20260508112836 47 319 1.0 1.0 0.00 0.00 0.00 92 1016.7
20260508112723 47 319 1.0 1.0 0.00 0.00 0.00 92 1016.7
20260508112629 47 319 1.0 1.0 0.00 0.00 0.00 92 1016.7
20260508112518 47 319 0.0 1.0 0.00 0.00 0.00 92 1016.7
20260508112445 47 319 0.0 1.0 0.00 0.00 0.00 92 1016.7
20260508112311 47 319 0.0 1.0 0.00 0.00 0.00 92 1016.5
20260508112223 47 319 0.0 1.0 0.00 0.00 0.00 92 1016.5
20260508112152 47 319 0.0 2.0 0.00 0.00 0.00 92 1016.6
20260508112102 47 319 0.0 2.0 0.00 0.00 0.00 92 1016.5
20260508111814 47 319 0.0 2.0 0.00 0.00 0.00 91 1016.6
20260508111722 47 319 0.0 2.0 0.00 0.00 0.00 91 1016.6
20260508111614 47 319 0.0 2.0 0.00 0.00 0.00 91 1016.5
20260508111521 47 319 0.0 2.0 0.00 0.00 0.00 91 1016.5
20260508111448 47 319 0.0 2.0 0.00 0.00 0.00 91 1016.4
20260508111313 47 319 1.0 2.0 0.00 0.00 0.00 91 1016.4
20260508111221 48 319 1.0 2.0 0.00 0.00 0.00 91 1016.4
20260508111149 48 319 2.0 2.0 0.00 0.00 0.00 91 1016.3
20260508111019 48 317 1.0 2.0 0.00 0.00 0.00 91 1016.3
20260508110926 48 312 1.0 2.0 0.00 0.00 0.00 91 1016.3
20260508110814 48 299 0.0 0.0 0.00 0.00 0.00 91 1016.2
20260508110722 48 299 0.0 0.0 0.00 0.00 0.00 91 1016.2
20260508110604 48 299 0.0 0.0 0.00 0.00 0.00 92 1016.1
20260508110337 48 299 0.0 0.0 0.00 0.00 0.00 92 1016.1
20260508110244 48 299 0.0 0.0 0.00 0.00 0.00 91 1016.1
20260508110130 48 299 0.0 0.0 0.00 0.00 0.00 91 1016.1
20260508110017 48 299 0.0 1.0 0.00 0.00 0.00 91 1016.0
20260508105925 48 299 0.0 1.0 0.00 0.00 0.00 91 1016.0
20260508105816 48 299 0.0 1.0 0.00 0.00 0.00 91 1016.1
20260508105723 48 299 0.0 1.0 0.00 0.00 0.00 91 1016.1
20260508105611 48 299 0.0 2.0 0.00 0.00 0.00 91 1016.0
20260508105517 48 299 0.0 2.0 0.00 0.00 0.00 91 1016.0
20260508105426 48 299 0.0 2.0 0.00 0.00 0.00 91 1016.0
20260508105317 48 299 0.0 2.0 0.00 0.00 0.00 91 1016.0
20260508105224 48 299 0.0 2.0 0.00 0.00 0.00 91 1016.0
20260508105132 48 299 0.0 2.0 0.00 0.00 0.00 91 1016.0
20260508105104 48 299 1.0 2.0 0.00 0.00 0.00 91 1015.9
20260508104837 48 299 1.0 2.0 0.00 0.00 0.00 91 1015.9
20260508104727 48 299 1.0 2.0 0.00 0.00 0.00 91 1015.9
20260508104614 48 299 0.0 2.0 0.00 0.00 0.00 91 1015.9
20260508104521 48 310 0.0 2.0 0.00 0.00 0.00 91 1015.9
20260508104429 48 310 0.0 0.0 0.00 0.00 0.00 91 1016.0
20260508104317 48 310 0.0 0.0 0.00 0.00 0.00 91 1015.9
20260508104229 48 310 0.0 0.0 0.00 0.00 0.00 91 1015.9
20260508104116 48 311 0.0 0.0 0.00 0.00 0.00 91 1015.9
20260508104023 48 311 0.0 0.0 0.00 0.00 0.00 90 1015.9
20260508103911 48 311 0.0 0.0 0.00 0.00 0.00 90 1015.7
20260508103819 48 311 0.0 0.0 0.00 0.00 0.00 90 1015.7
20260508103726 48 311 0.0 0.0 0.00 0.00 0.00 90 1015.7
20260508103636 48 311 0.0 0.0 0.00 0.00 0.00 90 1015.8
20260508103606 48 311 0.0 0.0 0.00 0.00 0.00 90 1015.7
20260508103318 48 311 0.0 0.0 0.00 0.00 0.00 90 1015.7
20260508103227 48 311 0.0 0.0 0.00 0.00 0.00 90 1015.7
20260508103119 48 311 0.0 0.0 0.00 0.00 0.00 90 1015.6
20260508103026 48 311 0.0 0.0 0.00 0.00 0.00 90 1015.6
20260508102934 48 311 0.0 0.0 0.00 0.00 0.00 90 1015.6
20260508102821 48 311 0.0 0.0 0.00 0.00 0.00 90 1015.6
20260508102748 48 311 0.0 0.0 0.00 0.00 0.00 90 1015.5
20260508102614 48 311 0.0 0.0 0.00 0.00 0.00 90 1015.6
20260508102521 48 311 0.0 0.0 0.00 0.00 0.00 90 1015.6
20260508102411 49 311 0.0 0.0 0.00 0.00 0.00 90 1015.5
20260508102339 49 311 0.0 0.0 0.00 0.00 0.00 90 1015.6
20260508102224 49 311 0.0 0.0 0.00 0.00 0.00 90 1015.6
20260508102111 49 311 0.0 0.0 0.00 0.00 0.00 89 1015.5
20260508102047 49 311 0.0 0.0 0.00 0.00 0.00 89 1015.5
20260508101821 49 311 0.0 0.0 0.00 0.00 0.00 89 1015.5
20260508101728 49 311 0.0 0.0 0.00 0.00 0.00 89 1015.5
20260508101635 49 311 0.0 0.0 0.00 0.00 0.00 89 1015.6
20260508101522 49 312 0.0 0.0 0.00 0.00 0.00 89 1015.6
20260508101430 49 316 0.0 0.0 0.00 0.00 0.00 89 1015.6
20260508101321 49 316 0.0 0.0 0.00 0.00 0.00 89 1015.5
20260508101230 49 316 0.0 0.0 0.00 0.00 0.00 89 1015.5
20260508101118 49 316 0.0 0.0 0.00 0.00 0.00 89 1015.5
20260508101026 49 316 0.0 0.0 0.00 0.00 0.00 89 1015.5
20260508100933 49 316 0.0 0.0 0.00 0.00 0.00 89 1015.6
20260508100821 49 317 0.0 0.0 0.00 0.00 0.00 89 1015.6
20260508100712 49 318 0.0 0.0 0.00 0.00 0.00 89 1015.6
20260508100620 49 318 0.0 0.0 0.00 0.00 0.00 89 1015.6
20260508100551 49 319 0.0 0.0 0.00 0.00 0.00 89 1015.6
20260508100324 49 322 0.0 0.0 0.00 0.00 0.00 89 1015.5
20260508100251 49 322 0.0 0.0 0.00 0.00 0.00 89 1015.5
20260508100122 49 322 0.0 0.0 0.00 0.00 0.00 89 1015.5
20260508100029 49 322 0.0 0.0 0.00 0.00 0.00 89 1015.5
20260508095937 49 322 0.0 0.0 0.00 0.00 0.00 89 1015.5
20260508095824 49 322 0.0 0.0 0.00 0.00 0.00 88 1015.5
20260508095713 49 322 0.0 0.0 0.00 0.00 0.00 88 1015.5
20260508095621 49 322 0.0 0.0 0.00 0.00 0.00 88 1015.5
20260508095552 49 322 0.0 0.0 0.00 0.00 0.00 88 1015.6
20260508095419 49 322 0.0 0.0 0.00 0.00 0.00 88 1015.4
20260508095344 49 322 0.0 0.0 0.00 0.00 0.00 88 1015.4
20260508095231 49 322 0.0 0.0 0.00 0.00 0.00 88 1015.3
20260508095118 49 322 0.0 0.0 0.00 0.00 0.00 88 1015.4
20260508095054 49 322 0.0 0.0 0.00 0.00 0.00 89 1015.4
20260508094828 49 322 0.0 0.0 0.00 0.00 0.00 89 1015.3
20260508094736 49 322 0.0 0.0 0.00 0.00 0.00 89 1015.3
20260508094622 49 322 0.0 0.0 0.00 0.00 0.00 89 1015.3
20260508094529 49 322 0.0 0.0 0.00 0.00 0.00 89 1015.3
20260508094437 49 322 0.0 0.0 0.00 0.01 0.00 88 1015.3
20260508094328 49 322 0.0 0.0 0.00 0.01 0.00 88 1015.3
20260508094216 49 322 0.0 0.0 0.00 0.01 0.00 88 1015.3
20260508094122 49 322 0.0 1.0 0.00 0.01 0.00 88 1015.3
20260508094030 49 322 0.0 1.0 0.00 0.01 0.00 88 1015.3
20260508093916 49 322 0.0 1.0 0.00 0.01 0.00 88 1015.3
20260508093822 49 322 0.0 1.0 0.00 0.01 0.00 88 1015.3
20260508093734 49 322 0.0 1.0 0.00 0.01 0.00 88 1015.2
20260508093641 49 322 0.0 1.0 0.00 0.01 0.00 88 1015.2
20260508093612 49 322 0.0 1.0 0.00 0.01 0.00 88 1015.2
20260508093325 49 322 0.0 1.0 0.00 0.01 0.00 88 1015.2
20260508093213 49 340 0.0 0.0 0.00 0.01 0.00 88 1015.1
20260508093125 49 340 0.0 2.0 0.00 0.01 0.00 88 1015.1
20260508093032 49 340 0.0 2.0 0.00 0.01 0.00 88 1015.1
20260508092919 49 340 0.0 3.0 0.00 0.01 0.00 88 1015.1
20260508092826 49 340 0.0 3.0 0.00 0.01 0.00 88 1015.1
20260508092713 50 340 0.0 3.0 0.00 0.01 0.00 88 1015.2
20260508092621 49 340 0.0 3.0 0.00 0.01 0.00 88 1015.2
20260508092512 49 340 0.0 3.0 0.00 0.01 0.00 88 1015.2
20260508092420 49 340 0.0 3.0 0.00 0.01 0.00 88 1015.2
20260508092327 50 340 1.0 3.0 0.00 0.01 0.00 88 1015.1
20260508092215 50 340 2.0 3.0 0.00 0.01 0.00 88 1015.1
20260508092122 50 337 2.0 3.0 0.00 0.01 0.00 88 1015.1
20260508092057 50 331 2.0 3.0 0.00 0.01 0.00 88 1015.2
20260508091830 49 327 2.0 3.0 0.00 0.01 0.00 88 1015.2
20260508091717 49 333 2.0 3.0 0.00 0.01 0.00 88 1015.2
20260508091645 50 333 2.0 3.0 0.00 0.01 0.00 88 1015.2
20260508091512 50 332 2.0 3.0 0.00 0.01 0.00 88 1015.1
20260508091443 50 341 1.0 3.0 0.00 0.01 0.00 88 1015.1
20260508091350 50 336 1.0 3.0 0.00 0.01 0.00 88 1015.1
20260508091216 50 338 1.0 3.0 0.00 0.01 0.00 88 1015.1
20260508091123 50 339 1.0 3.0 0.00 0.01 0.00 88 1015.1
20260508091011 50 333 2.0 3.0 0.00 0.01 0.00 87 1015.1
20260508090918 50 333 2.0 3.0 0.00 0.01 0.00 87 1015.1
20260508090829 50 346 2.0 3.0 0.00 0.01 0.00 87 1015.1
20260508090716 50 355 1.0 3.0 0.00 0.01 0.00 87 1015.1
20260508090622 50 340 1.0 3.0 0.00 0.01 0.00 87 1015.1
20260508090553 50 340 1.0 4.0 0.00 0.01 0.00 87 1015.1
20260508090346 50 340 1.0 4.0 0.00 0.01 0.00 87 1015.1
20260508090218 50 340 2.0 4.0 0.00 0.01 0.00 87 1015.1
20260508090126 50 5 2.0 4.0 0.00 0.01 0.00 87 1015.1
20260508090013 50 348 2.0 4.0 0.00 0.01 0.00 87 1015.1
20260508085921 50 336 2.0 4.0 0.00 0.01 0.00 87 1015.1
20260508085828 50 336 3.0 4.0 0.00 0.01 0.00 87 1015.1
20260508085720 50 341 3.0 4.0 0.00 0.01 0.00 87 1015.0
20260508085628 50 339 2.0 4.0 0.00 0.01 0.00 87 1015.2
20260508085515 50 355 2.0 4.0 0.00 0.01 0.00 87 1015.1
20260508085422 50 344 2.0 4.0 0.00 0.01 0.00 87 1015.1
20260508085330 50 344 2.0 4.0 0.00 0.01 0.00 87 1015.1
20260508085218 50 347 3.0 4.0 0.00 0.01 0.00 87 1015.1
20260508085150 50 345 3.0 4.0 0.00 0.01 0.00 87 1015.1
20260508085100 50 348 3.0 5.0 0.00 0.01 0.00 87 1015.0
20260508084814 50 346 3.0 5.0 0.00 0.01 0.00 87 1015.0
20260508084721 50 346 3.0 5.0 0.00 0.01 0.00 87 1015.0
20260508084613 50 344 3.0 5.0 0.00 0.01 0.00 87 1015.0
20260508084519 50 342 3.0 5.0 0.00 0.01 0.00 87 1015.0
20260508084445 51 340 3.0 5.0 0.00 0.01 0.00 87 1015.0
20260508084312 51 338 3.0 5.0 0.00 0.26 0.00 87 1015.0
20260508084240 51 340 3.0 4.0 0.00 0.26 0.00 87 1015.1
20260508084128 51 336 3.0 4.0 0.00 0.26 0.00 87 1015.1
20260508084015 51 348 3.0 4.0 0.00 0.26 0.00 87 1015.0
20260508083929 51 331 3.0 4.0 0.00 0.26 0.00 87 1015.0
20260508083815 51 348 3.0 4.0 0.00 0.26 0.00 87 1015.0
20260508083722 51 349 3.0 4.0 0.00 0.26 0.00 87 1015.0
20260508083630 51 342 3.0 4.0 0.00 0.26 0.00 88 1015.0
20260508083601 51 346 3.0 4.0 0.00 0.26 0.00 88 1015.0
20260508083318 51 331 3.0 4.0 0.00 0.26 0.00 89 1014.9
20260508083225 51 344 3.0 4.0 0.00 0.26 0.00 88 1014.9
20260508083114 51 348 3.0 4.0 0.00 0.26 0.00 89 1015.0
20260508083021 51 340 3.0 4.0 0.00 0.26 0.00 89 1015.0
20260508082946 51 355 3.0 4.0 0.00 0.26 0.00 89 1014.9
20260508082818 51 355 2.0 4.0 0.00 0.26 0.00 89 1014.9
20260508082725 51 360 2.0 4.0 0.00 0.26 0.00 88 1014.9
20260508082632 51 355 2.0 4.0 0.00 0.26 0.00 89 1015.0
20260508082519 51 5 2.0 4.0 0.00 0.26 0.00 89 1015.0
20260508082427 51 355 2.0 4.0 0.00 0.26 0.00 88 1014.9
20260508082315 51 355 2.0 5.0 0.00 0.26 0.00 88 1014.9
20260508082226 51 335 2.0 5.0 0.00 0.26 0.00 88 1014.9
20260508082114 51 15 2.0 5.0 0.00 0.26 0.00 87 1014.9
20260508082045 51 360 3.0 5.0 0.00 0.26 0.00 87 1014.9
20260508081818 51 350 3.0 5.0 0.00 0.26 0.00 85 1014.9
20260508081725 51 346 3.0 5.0 0.00 0.26 0.00 85 1014.9
20260508081616 51 344 3.0 5.0 0.00 0.26 0.00 85 1015.0
20260508081525 51 346 3.0 5.0 0.00 0.26 0.00 85 1015.0
20260508081412 51 339 3.0 5.0 0.00 0.26 0.00 85 1015.0
20260508081320 51 355 3.0 5.0 0.00 0.26 0.00 85 1015.0
20260508081227 51 343 3.0 5.0 0.00 0.26 0.00 85 1014.9
20260508081117 51 345 3.0 5.0 0.00 0.26 0.00 85 1014.9
20260508081025 51 346 2.0 5.0 0.00 0.26 0.00 85 1014.9
20260508080912 51 344 2.0 5.0 0.00 0.26 0.00 85 1014.9
20260508080820 51 351 3.0 5.0 0.00 0.26 0.00 85 1014.9
20260508080727 51 355 3.0 5.0 0.00 0.26 0.00 85 1014.8
20260508080619 51 355 3.0 5.0 0.00 0.26 0.00 85 1014.8
20260508080550 51 355 3.0 5.0 0.00 0.26 0.00 85 1014.8
20260508080323 51 342 3.0 4.0 0.00 0.26 0.00 85 1014.9
20260508080211 51 346 3.0 4.0 0.00 0.26 0.00 85 1014.9
20260508080118 51 346 2.0 4.0 0.00 0.26 0.00 85 1014.9
20260508080029 51 355 2.0 4.0 0.00 0.26 0.00 85 1014.9
20260508075916 51 355 3.0 4.0 0.00 0.26 0.00 85 1014.8
20260508075843 51 351 2.0 4.0 0.00 0.26 0.00 85 1014.8
20260508075729 51 12 3.0 4.0 0.00 0.26 0.00 85 1014.8
20260508075616 52 5 3.0 6.0 0.00 0.26 0.00 85 1014.9
20260508075523 52 5 2.0 6.0 0.00 0.26 0.00 85 1014.9
20260508075436 52 5 3.0 6.0 0.00 0.26 0.00 84 1014.8
20260508075323 52 355 3.0 6.0 0.00 0.26 0.00 84 1014.8
20260508075230 52 355 3.0 6.0 0.00 0.26 0.00 84 1014.8
20260508075137 52 355 3.0 6.0 0.00 0.26 0.00 84 1014.8
20260508075108 52 355 3.0 6.0 0.00 0.26 0.00 84 1014.8
20260508074845 52 5 4.0 6.0 0.00 0.26 0.00 84 1014.7
20260508074711 52 5 3.0 6.0 0.00 0.26 0.00 84 1014.6
20260508074620 52 18 3.0 6.0 0.00 0.26 0.00 84 1014.6
20260508074527 52 27 4.0 6.0 0.00 0.26 0.00 84 1014.8
20260508074414 52 11 4.0 6.0 0.00 0.31 0.00 84 1014.8
20260508074322 52 5 4.0 6.0 0.00 0.31 0.00 84 1014.8
20260508074234 52 15 4.0 6.0 0.00 0.31 0.00 84 1015.0
20260508074121 52 347 4.0 6.0 0.00 0.31 0.00 84 1015.0
20260508074029 52 5 4.0 6.0 0.00 0.31 0.00 84 1015.0
20260508073936 52 351 4.0 6.0 0.00 0.31 0.00 84 1015.0
20260508073824 52 345 4.0 6.0 0.00 0.31 0.00 84 1015.0
20260508073712 52 355 4.0 6.0 0.00 0.31 0.00 84 1015.0
20260508073624 52 351 4.0 6.0 0.00 0.31 0.00 84 1015.0
20260508073554 52 341 4.0 6.0 0.00 0.31 0.00 84 1015.1
20260508073326 52 349 4.0 6.0 0.00 0.31 0.00 84 1015.0
20260508073214 52 345 4.0 5.0 0.00 0.31 0.00 84 1015.0
20260508073126 52 355 4.0 5.0 0.00 0.31 0.00 83 1015.0
20260508073033 52 339 3.0 5.0 0.00 0.31 0.00 83 1014.9
20260508072920 52 344 3.0 5.0 0.00 0.31 0.00 83 1014.9
20260508072827 52 355 3.0 5.0 0.00 0.31 0.00 84 1014.9
20260508072716 52 355 4.0 5.0 0.00 0.31 0.00 84 1014.9
20260508072624 52 335 4.0 5.0 0.00 0.31 0.00 84 1014.9
20260508072515 52 336 4.0 5.0 0.00 0.31 0.00 84 1015.0
20260508072423 52 335 4.0 5.0 0.00 0.31 0.00 84 1015.0
20260508072330 52 355 4.0 5.0 0.00 0.31 0.00 84 1015.0
20260508072218 52 347 3.0 5.0 0.00 0.31 0.00 84 1015.0
20260508072124 52 331 3.0 5.0 0.00 0.31 0.00 84 1015.0
20260508072058 52 344 3.0 4.0 0.00 0.31 0.00 84 1015.0
20260508071812 52 343 3.0 4.0 0.00 0.31 0.00 84 1015.0
20260508071721 52 344 2.0 4.0 0.00 0.31 0.00 84 1015.0
20260508071627 52 348 2.0 4.0 0.00 0.31 0.00 84 1015.0
20260508071515 52 360 2.0 4.0 0.00 0.31 0.00 84 1014.9
20260508071428 52 333 2.0 4.0 0.00 0.31 0.00 84 1014.9
20260508071315 52 350 2.0 3.0 0.00 0.31 0.00 84 1015.0
20260508071243 52 5 3.0 3.0 0.00 0.31 0.00 84 1015.0
20260508071150 52 9 2.0 3.0 0.00 0.31 0.00 84 1015.0
20260508071037 52 348 2.0 3.0 0.00 0.31 0.00 84 1015.0
20260508070923 52 355 2.0 3.0 0.00 0.31 0.00 84 1015.0
20260508070814 52 341 2.0 3.0 0.00 0.31 0.00 84 1015.1
20260508070722 52 336 2.0 3.0 0.00 0.31 0.00 84 1015.1
20260508070630 52 338 2.0 3.0 0.00 0.31 0.00 84 1015.0
20260508070559 52 346 2.0 3.0 0.00 0.31 0.00 84 1015.1
20260508070313 52 348 2.0 3.0 0.00 0.31 0.00 83 1015.2
20260508070225 52 342 2.0 3.0 0.00 0.31 0.00 83 1015.2
20260508070133 52 344 2.0 3.0 0.00 0.31 0.00 83 1015.2
20260508070020 52 348 2.0 3.0 0.00 0.31 0.00 83 1015.2
20260508065927 52 339 2.0 3.0 0.00 0.31 0.00 83 1015.2
20260508065835 52 348 2.0 3.0 0.00 0.31 0.00 83 1015.2
20260508065721 52 346 2.0 3.0 0.00 0.31 0.00 83 1015.2
20260508065612 52 346 2.0 3.0 0.00 0.31 0.00 83 1015.2
20260508065519 52 342 2.0 3.0 0.00 0.31 0.00 83 1015.2
20260508065427 52 355 2.0 3.0 0.00 0.31 0.00 83 1015.2
20260508065314 52 355 2.0 3.0 0.00 0.31 0.00 83 1015.2
20260508065221 52 348 2.0 3.0 0.00 0.31 0.00 83 1015.2
20260508065128 52 355 1.0 3.0 0.00 0.31 0.00 84 1015.1
20260508065103 52 346 1.0 3.0 0.00 0.31 0.00 83 1015.1
20260508064817 52 345 2.0 4.0 0.00 0.31 0.00 84 1015.1
20260508064723 52 351 2.0 4.0 0.00 0.31 0.00 84 1015.1
20260508064611 52 355 2.0 4.0 0.00 0.31 0.00 84 1015.2
20260508064542 52 355 2.0 4.0 0.00 0.31 0.00 84 1015.2
20260508064326 52 5 2.0 4.0 0.00 0.31 0.00 84 1015.2
20260508064213 52 9 2.0 4.0 0.00 0.31 0.00 84 1015.2
20260508064121 52 13 2.0 4.0 0.00 0.31 0.00 84 1015.2
20260508064028 52 9 2.0 4.0 0.00 0.31 0.00 84 1015.1
20260508063919 52 5 2.0 4.0 0.00 0.31 0.00 84 1015.2
20260508063827 52 9 2.0 4.0 0.00 0.31 0.00 84 1015.1
20260508063713 52 355 2.0 3.0 0.00 0.31 0.00 84 1015.2
20260508063621 52 13 2.0 3.0 0.00 0.31 0.00 84 1015.2
20260508063552 52 14 2.0 3.0 0.00 0.31 0.00 84 1015.3
20260508063330 52 360 2.0 3.0 0.00 0.31 0.00 83 1015.3
20260508063218 53 5 2.0 3.0 0.00 0.31 0.00 83 1015.2
20260508063125 53 5 2.0 3.0 0.00 0.31 0.00 83 1015.2
20260508063012 53 360 1.0 3.0 0.00 0.31 0.00 83 1015.3
20260508062919 53 24 1.0 3.0 0.00 0.31 0.00 83 1015.4
20260508062811 53 30 1.0 4.0 0.00 0.31 0.00 82 1015.4
20260508062718 53 22 1.0 4.0 0.00 0.31 0.00 83 1015.3
20260508062626 53 14 1.0 4.0 0.00 0.31 0.00 82 1015.3
20260508062514 53 15 1.0 4.0 0.00 0.31 0.00 82 1015.4
20260508062421 53 19 1.0 4.0 0.00 0.31 0.00 82 1015.4
20260508062313 53 5 2.0 4.0 0.00 0.31 0.00 82 1015.4
20260508062221 53 5 2.0 4.0 0.00 0.31 0.00 82 1015.4
20260508062129 53 5 2.0 4.0 0.00 0.31 0.00 82 1015.5
20260508062059 53 14 2.0 4.0 0.00 0.31 0.00 82 1015.5
20260508061813 53 355 2.0 3.0 0.00 0.31 0.00 82 1015.6
20260508061744 53 355 2.0 3.0 0.00 0.31 0.00 82 1015.6
20260508061611 53 5 2.0 3.0 0.00 0.31 0.00 82 1015.5
20260508061518 53 360 2.0 3.0 0.00 0.31 0.00 82 1015.5
20260508061426 53 5 1.0 3.0 0.00 0.31 0.00 82 1015.5
20260508061313 53 355 1.0 3.0 0.00 0.31 0.00 82 1015.5
20260508061220 53 355 2.0 3.0 0.00 0.31 0.00 82 1015.5
20260508061131 53 346 1.0 3.0 0.00 0.31 0.00 82 1015.5
20260508061017 53 355 1.0 3.0 0.00 0.31 0.00 82 1015.5
20260508060925 53 355 2.0 3.0 0.00 0.31 0.00 82 1015.5
20260508060811 53 351 1.0 3.0 0.00 0.31 0.00 82 1015.5
20260508060739 53 5 1.0 3.0 0.00 0.31 0.00 82 1015.5
20260508060559 53 5 1.0 3.0 0.00 0.31 0.00 82 1015.5
20260508060311 53 5 1.0 3.0 0.00 0.31 0.00 82 1015.5
20260508060219 53 355 2.0 3.0 0.00 0.31 0.00 83 1015.5
20260508060128 53 355 2.0 3.0 0.00 0.31 0.00 83 1015.5
20260508060018 53 360 2.0 3.0 0.00 0.31 0.00 83 1015.6
20260508055926 53 335 2.0 3.0 0.00 0.31 0.00 83 1015.6
20260508055813 53 355 2.0 3.0 0.00 0.31 0.00 83 1015.6
20260508055720 53 341 2.0 3.0 0.00 0.31 0.00 83 1015.6
20260508055629 53 346 2.0 3.0 0.00 0.31 0.00 83 1015.6
20260508055521 53 347 1.0 3.0 0.00 0.31 0.00 83 1015.5
20260508055427 53 343 1.0 3.0 0.00 0.31 0.00 83 1015.5
20260508055314 53 355 1.0 3.0 0.00 0.31 0.00 83 1015.5
20260508055243 53 355 1.0 3.0 0.00 0.31 0.00 83 1015.5
20260508055149 53 5 1.0 3.0 0.00 0.31 0.00 83 1015.4
20260508055119 53 5 1.0 3.0 0.00 0.31 0.00 82 1015.5
20260508054815 53 355 1.0 3.0 0.00 0.31 0.00 82 1015.5
20260508054743 53 355 1.0 3.0 0.00 0.31 0.00 82 1015.5
20260508054629 53 360 2.0 3.0 0.00 0.31 0.00 82 1015.6
20260508054516 53 360 2.0 3.0 0.00 0.31 0.00 82 1015.6
20260508054423 53 355 2.0 3.0 0.00 0.31 0.00 83 1015.6
20260508054312 54 355 2.0 3.0 0.00 0.31 0.31 82 1015.7
20260508054221 54 355 2.0 3.0 0.00 0.31 0.31 83 1015.7
20260508054128 54 355 2.0 3.0 0.00 0.31 0.31 83 1015.7
20260508054016 54 333 1.0 3.0 0.00 0.31 0.31 83 1015.7
20260508053923 54 345 2.0 4.0 0.00 0.31 0.31 83 1015.7
20260508053811 54 330 2.0 4.0 0.00 0.31 0.31 83 1015.8
20260508053723 54 342 2.0 4.0 0.00 0.31 0.31 83 1015.8
20260508053630 54 335 2.0 4.0 0.00 0.31 0.31 83 1015.7
20260508053601 54 336 2.0 4.0 0.00 0.31 0.31 83 1015.8
20260508053314 54 332 2.0 4.0 0.00 0.31 0.31 83 1015.6
20260508053243 54 344 2.0 4.0 0.00 0.31 0.31 83 1015.7
20260508053113 54 351 2.0 4.0 0.00 0.31 0.31 83 1015.6
20260508053021 54 348 2.0 4.0 0.00 0.31 0.31 83 1015.6
20260508052928 54 323 2.0 4.0 0.00 0.31 0.31 83 1015.6
20260508052816 54 333 2.0 3.0 0.00 0.31 0.31 83 1015.7
20260508052723 54 345 2.0 3.0 0.00 0.31 0.31 83 1015.7
20260508052614 54 338 2.0 3.0 0.00 0.31 0.31 83 1015.7
20260508052522 54 350 1.0 3.0 0.00 0.31 0.31 83 1015.7
20260508052430 54 340 1.0 3.0 0.00 0.31 0.31 83 1015.6
20260508052318 54 336 2.0 3.0 0.00 0.31 0.31 83 1015.6
20260508052225 54 355 2.0 4.0 0.00 0.31 0.31 83 1015.6
20260508052131 54 348 1.0 4.0 0.00 0.31 0.31 84 1015.6
20260508052105 54 347 1.0 4.0 0.00 0.31 0.31 84 1015.5
20260508051817 54 344 1.0 4.0 0.00 0.31 0.31 84 1015.5
20260508051723 54 342 1.0 4.0 0.00 0.31 0.31 84 1015.5
20260508051630 54 343 2.0 4.0 0.00 0.31 0.31 84 1015.5
20260508051523 54 348 2.0 4.0 0.00 0.31 0.31 85 1015.5
20260508051430 54 355 2.0 4.0 0.00 0.31 0.31 85 1015.6
20260508051318 54 355 2.0 4.0 0.00 0.31 0.31 85 1015.6
20260508051224 54 338 2.0 3.0 0.00 0.31 0.31 85 1015.6
20260508051131 54 355 1.0 3.0 0.00 0.31 0.31 86 1015.8
20260508051019 54 331 1.0 3.0 0.00 0.31 0.31 86 1015.6
20260508050930 54 335 0.0 3.0 0.00 0.31 0.31 86 1015.6
20260508050816 54 317 0.0 3.0 0.00 0.31 0.31 86 1015.7
20260508050744 54 319 1.0 3.0 0.00 0.31 0.31 86 1015.7
20260508050652 54 309 1.0 3.0 0.00 0.31 0.31 86 1015.6
20260508050601 54 309 2.0 3.0 0.00 0.31 0.31 86 1015.8
20260508050317 54 333 2.0 3.0 0.00 0.31 0.31 85 1015.6
20260508050225 54 332 1.0 3.0 0.00 0.31 0.31 86 1015.6
20260508050112 54 342 1.0 3.0 0.00 0.31 0.31 86 1015.5
20260508050019 54 340 2.0 3.0 0.00 0.31 0.31 86 1015.5
20260508045927 54 326 2.0 3.0 0.00 0.31 0.31 86 1015.5
20260508045835 54 343 1.0 3.0 0.00 0.31 0.31 86 1015.5
20260508045725 54 339 2.0 3.0 0.00 0.31 0.31 86 1015.5
20260508045613 54 346 2.0 3.0 0.00 0.31 0.31 86 1015.6
20260508045522 54 330 2.0 3.0 0.00 0.31 0.31 86 1015.6
20260508045449 54 331 2.0 3.0 0.00 0.31 0.31 86 1015.6
20260508045315 54 338 1.0 2.0 0.00 0.31 0.31 86 1015.5
20260508045222 54 337 1.0 2.0 0.00 0.31 0.31 86 1015.5
20260508045134 54 335 0.0 2.0 0.00 0.31 0.31 86 1015.5
20260508045104 54 341 1.0 2.0 0.00 0.31 0.31 86 1015.5
20260508044817 54 346 1.0 2.0 0.00 0.31 0.31 86 1015.4
20260508044724 54 346 1.0 3.0 0.00 0.31 0.31 86 1015.4
20260508044616 54 347 1.0 3.0 0.00 0.31 0.31 87 1015.4
20260508044522 54 344 1.0 3.0 0.00 0.31 0.31 87 1015.4
20260508044429 54 347 1.0 3.0 0.00 0.31 0.31 87 1015.4
20260508044316 54 346 1.0 3.0 0.00 0.31 0.31 87 1015.4
20260508044244 54 340 1.0 3.0 0.00 0.31 0.31 87 1015.4
20260508044131 54 340 1.0 3.0 0.00 0.31 0.31 87 1015.4
20260508044022 54 341 1.0 3.0 0.00 0.31 0.31 87 1015.3
20260508043930 54 342 1.0 3.0 0.00 0.31 0.31 87 1015.5
20260508043818 54 346 1.0 2.0 0.00 0.31 0.31 87 1015.4
20260508043725 54 355 0.0 2.0 0.00 0.31 0.31 87 1015.4
20260508043611 54 355 0.0 2.0 0.00 0.31 0.31 87 1015.3
20260508043545 54 360 0.0 2.0 0.00 0.31 0.31 86 1015.3
20260508043319 54 360 1.0 2.0 0.00 0.31 0.31 86 1015.3
20260508043227 54 360 1.0 2.0 0.00 0.31 0.31 86 1015.3
20260508043114 54 360 1.0 2.0 0.00 0.31 0.31 86 1015.3
20260508043041 54 360 1.0 3.0 0.00 0.31 0.31 86 1015.3
20260508042911 54 360 1.0 3.0 0.00 0.31 0.31 86 1015.3
20260508042819 54 360 1.0 3.0 0.00 0.31 0.31 86 1015.3
20260508042725 54 360 1.0 3.0 0.00 0.31 0.31 86 1015.3
20260508042612 54 360 1.0 3.0 0.00 0.31 0.31 86 1015.3
20260508042520 54 360 1.0 3.0 0.00 0.31 0.31 86 1015.4
20260508042447 54 360 1.0 3.0 0.00 0.31 0.31 86 1015.4
20260508042318 54 360 1.0 3.0 0.00 0.31 0.31 86 1015.4
20260508042225 54 360 1.0 3.0 0.00 0.31 0.31 86 1015.4
20260508042133 54 360 1.0 3.0 0.00 0.31 0.31 87 1015.3
20260508042104 54 360 1.0 3.0 0.00 0.31 0.31 87 1015.4
20260508041821 54 344 0.0 0.0 0.00 0.31 0.31 87 1015.3
20260508041750 54 344 0.0 0.0 0.00 0.31 0.31 86 1015.3
20260508041618 54 344 0.0 0.0 0.00 0.31 0.31 86 1015.4
20260508041544 54 344 0.0 0.0 0.00 0.31 0.31 86 1015.4
20260508041411 54 344 0.0 0.0 0.00 0.31 0.31 86 1015.5
20260508041339 54 344 0.0 0.0 0.00 0.31 0.31 86 1015.5
20260508041226 54 344 0.0 0.0 0.00 0.31 0.31 86 1015.5
20260508041117 54 344 0.0 0.0 0.00 0.31 0.31 86 1015.5
20260508041025 54 344 0.0 0.0 0.00 0.31 0.31 86 1015.5
20260508040913 54 344 0.0 0.0 0.00 0.31 0.31 86 1015.5
20260508040821 54 344 0.0 1.0 0.00 0.31 0.31 86 1015.5
20260508040729 54 344 0.0 1.0 0.00 0.31 0.31 86 1015.6
20260508040621 54 343 0.0 1.0 0.00 0.31 0.31 86 1015.5
20260508040551 54 343 0.0 1.0 0.00 0.31 0.31 86 1015.5
20260508040325 54 333 0.0 1.0 0.00 0.31 0.31 86 1015.4
20260508040211 55 329 0.0 1.0 0.00 0.31 0.31 86 1015.4
20260508040120 55 329 0.0 1.0 0.00 0.31 0.31 86 1015.5
20260508040030 55 329 0.0 1.0 0.00 0.31 0.31 86 1015.5
20260508035916 55 329 0.0 2.0 0.00 0.31 0.31 86 1015.4
20260508035844 55 321 0.0 2.0 0.00 0.31 0.31 87 1015.4
20260508035730 55 311 0.0 2.0 0.00 0.31 0.31 86 1015.5
20260508035617 55 305 0.0 2.0 0.00 0.31 0.31 87 1015.5
20260508035546 55 305 0.0 2.0 0.00 0.31 0.31 87 1015.5
20260508035437 55 299 0.0 2.0 0.00 0.31 0.31 87 1015.5
20260508035324 55 300 0.0 2.0 0.00 0.31 0.31 86 1015.5
20260508035252 55 319 0.0 2.0 0.00 0.31 0.31 86 1015.5
20260508035138 55 319 0.0 2.0 0.00 0.31 0.31 86 1015.4
20260508035046 55 319 0.0 1.0 0.00 0.31 0.31 86 1015.5
20260508034839 55 316 0.0 1.0 0.00 0.31 0.31 86 1015.4
20260508034745 55 316 0.0 1.0 0.00 0.31 0.31 86 1015.4
20260508034616 55 294 0.0 1.0 0.00 0.31 0.31 86 1015.4
20260508034523 55 294 0.0 1.0 0.00 0.31 0.31 86 1015.4
20260508034450 55 294 0.0 1.0 0.00 0.31 0.31 86 1015.4
20260508034316 55 294 0.0 1.0 0.00 0.35 0.31 85 1015.4
20260508034223 55 294 0.0 1.0 0.00 0.35 0.31 85 1015.4
20260508034114 55 294 0.0 1.0 0.00 0.35 0.31 85 1015.4
20260508034022 55 294 0.0 1.0 0.00 0.35 0.31 85 1015.4
20260508033951 55 294 0.0 0.0 0.00 0.35 0.31 85 1015.4
20260508033818 55 294 0.0 0.0 0.00 0.35 0.31 85 1015.3
20260508033725 55 294 0.0 0.0 0.00 0.35 0.31 85 1015.3
20260508033613 56 294 0.0 2.0 0.00 0.35 0.31 85 1015.4
20260508033548 56 294 0.0 2.0 0.00 0.35 0.31 85 1015.4
20260508033342 56 294 0.0 2.0 0.00 0.35 0.31 84 1015.5
20260508033228 56 294 0.0 2.0 0.00 0.35 0.31 84 1015.5
20260508033116 56 294 0.0 2.0 0.00 0.35 0.31 84 1015.5
20260508033025 56 294 0.0 2.0 0.00 0.35 0.31 84 1015.5
20260508032916 56 294 1.0 2.0 0.00 0.35 0.31 84 1015.5
20260508032824 56 294 1.0 3.0 0.00 0.35 0.31 83 1015.5
20260508032712 56 294 1.0 3.0 0.00 0.35 0.31 83 1015.5
20260508032640 56 294 1.0 3.0 0.00 0.35 0.31 83 1015.3
20260508032527 56 294 1.0 3.0 0.00 0.35 0.31 83 1015.3
20260508032415 56 299 0.0 3.0 0.00 0.35 0.31 83 1015.3
20260508032346 56 325 0.0 3.0 0.00 0.35 0.31 83 1015.3
20260508032213 56 327 1.0 3.0 0.00 0.35 0.31 83 1015.4
20260508032121 56 331 1.0 3.0 0.00 0.35 0.31 83 1015.3
20260508032052 56 331 2.0 3.0 0.00 0.35 0.31 82 1015.3
20260508031825 56 348 2.0 3.0 0.00 0.35 0.31 82 1015.4
20260508031718 56 346 2.0 2.0 0.00 0.35 0.31 82 1015.4
20260508031625 56 346 1.0 2.0 0.00 0.35 0.31 82 1015.4
20260508031534 57 346 1.0 3.0 0.00 0.35 0.31 82 1015.4
20260508031440 56 346 1.0 3.0 0.00 0.35 0.31 81 1015.5
20260508031326 57 346 1.0 3.0 0.00 0.35 0.31 81 1015.5
20260508031213 57 346 1.0 3.0 0.00 0.35 0.31 81 1015.4
20260508031125 57 347 2.0 3.0 0.00 0.35 0.31 81 1015.4
20260508031013 57 347 1.0 3.0 0.00 0.35 0.31 81 1015.2
20260508030942 57 346 2.0 3.0 0.00 0.35 0.31 81 1015.3
20260508030848 57 346 2.0 3.0 0.00 0.35 0.31 81 1015.3
20260508030713 57 340 2.0 3.0 0.00 0.35 0.31 81 1015.2
20260508030622 57 339 2.0 3.0 0.00 0.35 0.31 81 1015.2
20260508030555 57 340 2.0 3.0 0.00 0.35 0.31 81 1015.2
20260508030329 57 331 1.0 3.0 0.00 0.35 0.31 81 1015.3
20260508030218 57 299 0.0 0.0 0.00 0.35 0.31 80 1015.3
20260508030125 57 299 0.0 0.0 0.00 0.35 0.31 80 1015.3
20260508030017 57 299 0.0 0.0 0.00 0.35 0.31 80 1015.2
20260508025924 57 299 0.0 0.0 0.00 0.35 0.31 80 1015.2
20260508025813 57 299 0.0 0.0 0.00 0.35 0.31 80 1015.3
20260508025721 57 299 0.0 0.0 0.00 0.35 0.31 80 1015.3
20260508025629 57 299 0.0 0.0 0.00 0.35 0.31 80 1015.3
20260508025516 57 299 0.0 0.0 0.00 0.35 0.31 80 1015.2
20260508025427 57 299 0.0 0.0 0.00 0.35 0.31 80 1015.2
20260508025315 58 299 0.0 2.0 0.00 0.35 0.31 80 1015.2
20260508025243 58 299 0.0 2.0 0.00 0.35 0.31 80 1015.2
20260508025130 58 299 0.0 2.0 0.00 0.35 0.31 80 1015.2
20260508025045 58 299 0.0 2.0 0.00 0.35 0.31 80 1015.2
20260508024818 58 299 0.0 2.0 0.00 0.35 0.31 79 1015.1
20260508024724 58 299 0.0 2.0 0.00 0.35 0.31 79 1015.1
20260508024612 58 299 0.0 2.0 0.00 0.35 0.31 79 1015.1
20260508024520 58 299 1.0 2.0 0.00 0.35 0.31 78 1015.1
20260508024429 58 299 1.0 2.0 0.00 0.35 0.31 78 1015.1
20260508024321 58 333 2.0 2.0 0.00 0.39 0.31 77 1015.1
20260508024228 58 333 1.0 2.0 0.00 0.39 0.31 77 1015.1
20260508024116 58 333 1.0 2.0 0.00 0.39 0.31 77 1015.0
20260508024024 58 333 2.0 2.0 0.00 0.39 0.31 77 1015.0
20260508023913 58 333 2.0 2.0 0.00 0.39 0.31 76 1015.1
20260508023824 58 333 2.0 2.0 0.00 0.39 0.31 76 1015.1
20260508023711 58 333 2.0 2.0 0.00 0.39 0.31 76 1015.1
20260508023638 58 333 1.0 2.0 0.00 0.39 0.31 76 1015.1
20260508023609 58 333 1.0 2.0 0.00 0.39 0.31 76 1015.1
20260508023321 59 333 1.0 2.0 0.00 0.39 0.31 76 1015.0
20260508023211 59 333 1.0 2.0 0.00 0.39 0.31 75 1014.9
20260508023118 59 333 0.0 1.0 0.00 0.39 0.31 75 1014.9
20260508023026 59 333 0.0 1.0 0.00 0.39 0.31 75 1014.9
20260508022913 59 333 0.0 1.0 0.00 0.39 0.31 75 1014.9
20260508022820 59 333 0.0 1.0 0.00 0.39 0.31 75 1015.0
20260508022748 59 333 0.0 1.0 0.00 0.39 0.31 75 1015.0
20260508022618 59 333 0.0 0.0 0.00 0.39 0.31 75 1015.0
20260508022527 59 333 0.0 0.0 0.00 0.39 0.31 75 1015.0
20260508022414 59 333 0.0 0.0 0.00 0.39 0.31 75 1015.0
20260508022341 59 333 0.0 0.0 0.00 0.39 0.31 75 1014.9
20260508022228 59 333 0.0 0.0 0.00 0.39 0.31 74 1014.9
20260508022116 59 333 0.0 0.0 0.00 0.39 0.31 75 1014.9
20260508022051 59 333 0.0 0.0 0.00 0.39 0.31 75 1014.9
20260508021843 59 333 0.0 0.0 0.00 0.39 0.31 74 1015.0
20260508021729 59 333 0.0 0.0 0.00 0.39 0.31 74 1014.9
20260508021617 59 333 0.0 0.0 0.00 0.39 0.31 74 1014.9
20260508021544 59 333 0.0 0.0 0.00 0.39 0.31 74 1014.9
20260508021413 59 333 0.0 0.0 0.00 0.39 0.31 74 1014.9
20260508021322 59 333 0.0 1.0 0.00 0.39 0.31 74 1014.9
20260508021230 59 333 0.0 2.0 0.00 0.39 0.31 74 1014.9
20260508021117 60 333 0.0 2.0 0.00 0.39 0.31 74 1014.7
20260508021025 60 333 0.0 2.0 0.00 0.39 0.31 74 1014.7
20260508020916 60 333 0.0 2.0 0.00 0.39 0.31 74 1014.7
20260508020824 60 333 0.0 2.0 0.00 0.39 0.31 74 1014.7
20260508020731 60 333 0.0 2.0 0.00 0.39 0.31 73 1014.8
20260508020700 60 333 1.0 2.0 0.00 0.39 0.31 73 1014.7
20260508020547 60 331 1.0 2.0 0.00 0.39 0.31 73 1014.7
20260508020321 60 329 1.0 2.0 0.00 0.39 0.31 73 1014.8
20260508020213 60 298 0.0 1.0 0.00 0.39 0.31 73 1014.9
20260508020120 60 294 0.0 1.0 0.00 0.39 0.31 73 1014.8
20260508020028 60 294 0.0 0.0 0.00 0.39 0.31 73 1014.8
20260508015915 60 294 0.0 0.0 0.00 0.39 0.31 73 1014.8
20260508015822 60 294 0.0 0.0 0.00 0.39 0.31 73 1014.8
20260508015713 60 294 0.0 0.0 0.00 0.39 0.31 73 1014.8
20260508015620 60 294 0.0 0.0 0.00 0.39 0.31 72 1014.8
20260508015527 60 294 0.0 0.0 0.00 0.39 0.31 72 1014.8
20260508015414 60 294 0.0 0.0 0.00 0.39 0.31 72 1014.8
20260508015320 60 297 0.0 0.0 0.00 0.39 0.31 72 1014.8
20260508015211 60 297 0.0 0.0 0.00 0.39 0.31 72 1014.8
20260508015138 60 297 0.0 0.0 0.00 0.39 0.31 72 1014.8
20260508015108 60 297 0.0 0.0 0.00 0.39 0.31 73 1014.6
20260508014820 60 297 0.0 0.0 0.00 0.39 0.31 73 1014.5
20260508014726 60 297 0.0 0.0 0.00 0.39 0.31 73 1014.5
20260508014619 60 297 0.0 0.0 0.00 0.39 0.31 73 1014.6
20260508014526 61 297 0.0 0.0 0.00 0.39 0.31 72 1014.6
20260508014413 61 297 0.0 0.0 0.00 0.39 0.31 72 1014.6
20260508014341 61 297 0.0 0.0 0.00 0.39 0.31 72 1014.6
20260508014227 61 297 0.0 0.0 0.00 0.39 0.31 72 1014.6
20260508014114 61 297 0.0 0.0 0.00 0.39 0.31 72 1014.5
20260508014026 61 297 0.0 0.0 0.00 0.39 0.31 72 1014.5
20260508013914 61 297 0.0 0.0 0.00 0.39 0.31 71 1014.6
20260508013820 61 297 0.0 0.0 0.00 0.39 0.31 71 1014.6
20260508013748 61 297 0.0 1.0 0.00 0.39 0.31 71 1014.6
20260508013614 61 297 0.0 2.0 0.00 0.39 0.31 71 1014.5
20260508013548 61 297 0.0 2.0 0.00 0.39 0.31 70 1014.5
20260508013341 61 297 0.0 2.0 0.00 0.39 0.31 70 1014.5
20260508013228 61 297 0.0 2.0 0.00 0.39 0.31 70 1014.5
20260508013137 61 297 0.0 2.0 0.00 0.39 0.31 70 1014.5
20260508013023 61 297 0.0 2.0 0.00 0.39 0.31 70 1014.5
20260508012951 61 297 1.0 2.0 0.00 0.39 0.31 70 1014.4
20260508012837 61 297 1.0 2.0 0.00 0.39 0.31 69 1014.6
20260508012727 61 16 0.0 2.0 0.00 0.39 0.31 69 1014.6
20260508012615 61 16 0.0 2.0 0.00 0.39 0.31 68 1014.4
20260508012523 61 16 0.0 2.0 0.00 0.39 0.31 68 1014.4
20260508012430 62 16 0.0 2.0 0.00 0.39 0.31 68 1014.5
20260508012317 62 16 0.0 2.0 0.00 0.39 0.31 68 1014.4
20260508012225 62 16 1.0 2.0 0.00 0.39 0.31 68 1014.4
20260508012157 62 16 1.0 2.0 0.00 0.39 0.31 68 1014.4
20260508012108 62 16 1.0 3.0 0.00 0.39 0.31 68 1014.4
20260508011820 62 16 1.0 3.0 0.00 0.39 0.31 68 1014.3
20260508011748 62 16 2.0 3.0 0.00 0.39 0.31 68 1014.3
20260508011613 62 16 2.0 3.0 0.00 0.39 0.31 67 1014.3
20260508011526 62 16 2.0 3.0 0.00 0.39 0.31 67 1014.3
20260508011413 62 16 2.0 3.0 0.00 0.39 0.31 67 1014.2
20260508011322 62 16 2.0 3.0 0.00 0.39 0.31 66 1014.2
20260508011230 62 16 2.0 3.0 0.00 0.39 0.31 66 1014.3
20260508011119 63 19 2.0 3.0 0.00 0.39 0.31 66 1014.1
20260508011026 63 11 2.0 3.0 0.00 0.39 0.31 66 1014.1
20260508010917 63 360 2.0 3.0 0.00 0.39 0.31 65 1014.1
20260508010824 63 360 2.0 3.0 0.00 0.39 0.31 65 1014.1
20260508010712 63 346 2.0 3.0 0.00 0.39 0.31 64 1014.2
20260508010619 63 334 2.0 3.0 0.00 0.39 0.31 64 1014.2
20260508010552 63 331 2.0 3.0 0.00 0.39 0.31 64 1014.2
20260508010325 63 347 2.0 3.0 0.00 0.39 0.31 63 1014.1
20260508010232 63 355 2.0 3.0 0.00 0.39 0.31 63 1014.1
20260508010118 63 355 2.0 3.0 0.00 0.39 0.31 62 1014.0
20260508010026 63 335 2.0 3.0 0.00 0.39 0.31 62 1014.0
20260508005912 63 332 2.0 3.0 0.00 0.39 0.31 62 1014.0
20260508005823 63 333 2.0 3.0 0.00 0.39 0.31 62 1014.0
20260508005712 63 329 2.0 3.0 0.00 0.39 0.31 63 1014.0
20260508005619 64 319 2.0 3.0 0.00 0.39 0.31 63 1014.0
20260508005526 64 322 1.0 3.0 0.00 0.39 0.31 62 1014.0
20260508005413 64 319 1.0 3.0 0.00 0.39 0.31 63 1014.1
20260508005325 64 319 2.0 3.0 0.00 0.39 0.31 63 1014.1
20260508005212 64 317 2.0 3.0 0.00 0.39 0.31 63 1014.2
20260508005120 64 314 1.0 3.0 0.00 0.39 0.31 63 1014.1
20260508005050 64 298 1.0 2.0 0.00 0.39 0.31 63 1014.1
20260508004824 64 298 2.0 2.0 0.00 0.39 0.31 63 1014.1
20260508004716 64 297 1.0 2.0 0.00 0.39 0.31 63 1014.2
20260508004624 64 297 1.0 2.0 0.00 0.39 0.31 63 1014.2
20260508004531 64 292 2.0 2.0 0.00 0.39 0.31 63 1014.3
20260508004419 64 298 1.0 2.0 0.00 0.39 0.31 63 1014.2
20260508004326 64 298 1.0 2.0 0.00 0.39 0.31 63 1014.2
20260508004216 64 289 1.0 2.0 0.00 0.39 0.31 62 1014.2
20260508004125 64 294 1.0 2.0 0.00 0.39 0.31 62 1014.2
20260508004011 64 294 1.0 2.0 0.00 0.39 0.31 61 1014.1
20260508003918 65 290 1.0 2.0 0.00 0.39 0.31 61 1014.2
20260508003825 65 291 1.0 3.0 0.00 0.39 0.31 61 1014.2
20260508003712 65 291 1.0 3.0 0.00 0.39 0.31 61 1014.2
20260508003624 65 293 1.0 3.0 0.00 0.39 0.31 61 1014.2
20260508003556 65 294 1.0 4.0 0.00 0.39 0.31 61 1014.1
20260508003330 65 311 1.0 4.0 0.00 0.39 0.31 61 1014.1
20260508003217 65 311 1.0 4.0 0.00 0.39 0.31 60 1014.0
20260508003129 65 311 1.0 5.0 0.00 0.39 0.31 60 1014.0
20260508003018 65 312 2.0 5.0 0.00 0.39 0.31 59 1014.1
20260508002925 65 316 2.0 5.0 0.00 0.39 0.31 59 1014.1
20260508002813 65 310 2.0 5.0 0.00 0.39 0.31 57 1014.1
20260508002740 65 321 3.0 5.0 0.00 0.39 0.31 57 1014.0
20260508002625 65 317 3.0 5.0 0.00 0.39 0.31 57 1014.0
20260508002517 65 308 3.0 5.0 0.00 0.39 0.31 57 1014.1
20260508002444 65 298 3.0 5.0 0.00 0.39 0.31 57 1014.1
20260508002350 65 321 3.0 5.0 0.00 0.39 0.31 57 1014.1
20260508002217 65 333 3.0 5.0 0.00 0.39 0.31 56 1014.0
20260508002145 65 309 3.0 4.0 0.00 0.39 0.31 56 1014.0
20260508002054 65 318 3.0 4.0 0.00 0.39 0.31 56 1013.9
20260508001812 66 299 2.0 4.0 0.00 0.39 0.31 56 1013.9
20260508001719 66 320 2.0 4.0 0.00 0.39 0.31 56 1014.0
20260508001645 66 326 2.0 4.0 0.00 0.39 0.31 55 1014.0
20260508001531 66 321 2.0 5.0 0.00 0.39 0.31 56 1013.9
20260508001418 66 302 3.0 5.0 0.00 0.39 0.31 55 1013.9
20260508001325 66 328 3.0 5.0 0.00 0.39 0.31 55 1013.9
20260508001217 66 320 2.0 5.0 0.00 0.39 0.31 55 1013.8
20260508001124 66 320 3.0 5.0 0.00 0.39 0.31 55 1013.8
20260508001032 66 337 3.0 5.0 0.00 0.39 0.31 55 1013.8
20260508000918 66 305 2.0 5.0 0.00 0.39 0.31 55 1013.8
20260508000845 66 312 3.0 5.0 0.00 0.39 0.31 55 1013.8
20260508000733 66 321 3.0 5.0 0.00 0.39 0.31 54 1013.8
20260508000623 66 318 2.0 4.0 0.00 0.39 0.31 54 1013.8
20260508000553 66 288 2.0 4.0 0.00 0.39 0.31 54 1013.8
20260508000327 66 303 2.0 6.0 0.00 0.39 0.31 54 1013.7
20260508000215 66 321 2.0 6.0 0.00 0.39 0.31 54 1013.7
20260508000122 67 332 3.0 8.0 0.00 0.39 0.31 54 1013.7
20260508000014 67 310 3.0 8.0 0.00 0.39 0.31 54 1013.7
20260507235922 67 305 3.0 8.0 0.00 0.39 0.31 54 1013.7
20260507235828 67 300 3.0 8.0 0.00 0.39 0.31 54 1013.6
20260507235715 67 327 3.0 8.0 0.00 0.39 0.31 53 1013.5
20260507235622 67 319 4.0 8.0 0.00 0.39 0.31 53 1013.5
20260507235535 67 311 5.0 8.0 0.00 0.39 0.31 54 1013.5
20260507235422 67 323 5.0 8.0 0.00 0.39 0.31 53 1013.5
20260507235329 67 333 4.0 8.0 0.00 0.39 0.31 53 1013.5
20260507235215 67 321 4.0 6.0 0.00 0.39 0.31 53 1013.4
20260507235124 67 325 4.0 6.0 0.00 0.39 0.31 53 1013.4
20260507235059 67 321 5.0 6.0 0.00 0.39 0.31 53 1013.3
20260507234833 67 340 4.0 6.0 0.00 0.39 0.31 53 1013.5
20260507234740 67 322 3.0 6.0 0.00 0.39 0.31 53 1013.5
20260507234646 67 342 4.0 6.0 0.00 0.39 0.31 53 1013.5
20260507234532 67 310 4.0 7.0 0.00 0.39 0.31 53 1013.5
20260507234418 67 297 4.0 6.0 0.00 0.46 0.31 53 1013.5
20260507234325 67 300 4.0 8.0 0.00 0.46 0.31 53 1013.5
20260507234233 67 319 4.0 8.0 0.00 0.46 0.31 53 1013.5
20260507234123 67 311 4.0 8.0 0.00 0.46 0.31 53 1013.5
20260507234030 67 290 3.0 8.0 0.00 0.46 0.31 53 1013.5
20260507233918 67 333 4.0 8.0 0.00 0.46 0.31 53 1013.5
20260507233825 67 298 4.0 8.0 0.00 0.46 0.31 53 1013.5
20260507233711 67 344 5.0 10.0 0.00 0.46 0.31 53 1013.5
20260507233622 67 320 5.0 10.0 0.00 0.46 0.31 52 1013.5
20260507233552 67 316 5.0 10.0 0.00 0.46 0.31 52 1013.5
20260507233325 67 321 5.0 10.0 0.00 0.46 0.31 52 1013.5
20260507233212 67 325 4.0 10.0 0.00 0.46 0.31 52 1013.4
20260507233120 67 315 4.0 10.0 0.00 0.46 0.31 52 1013.5
20260507233010 67 332 5.0 10.0 0.00 0.46 0.31 52 1013.4
20260507232918 67 308 5.0 10.0 0.00 0.46 0.31 52 1013.3
20260507232827 67 323 5.0 10.0 0.00 0.46 0.31 52 1013.3
20260507232714 67 344 5.0 8.0 0.00 0.46 0.31 52 1013.4
20260507232620 68 324 6.0 8.0 0.00 0.46 0.31 52 1013.4
20260507232513 68 319 6.0 8.0 0.00 0.46 0.31 52 1013.4
20260507232441 68 344 5.0 8.0 0.00 0.46 0.31 51 1013.4
20260507232327 68 325 4.0 9.0 0.00 0.46 0.31 51 1013.4
20260507232235 68 298 4.0 9.0 0.00 0.46 0.31 52 1013.5
20260507232122 68 320 4.0 10.0 0.00 0.46 0.31 52 1013.5
20260507232056 68 350 5.0 10.0 0.00 0.46 0.31 52 1013.5
20260507231830 68 344 5.0 10.0 0.00 0.46 0.31 51 1013.6
20260507231719 68 355 5.0 10.0 0.00 0.46 0.31 52 1013.6
20260507231625 68 329 6.0 10.0 0.00 0.46 0.31 52 1013.6
20260507231513 68 331 5.0 10.0 0.00 0.46 0.31 51 1013.5
20260507231420 68 355 4.0 10.0 0.00 0.46 0.31 51 1013.4
20260507231352 68 5 5.0 10.0 0.00 0.46 0.31 51 1013.4
20260507231217 68 303 7.0 10.0 0.00 0.46 0.31 51 1013.5
20260507231145 68 318 7.0 10.0 0.00 0.46 0.31 51 1013.5
20260507231012 68 334 6.0 10.0 0.00 0.46 0.31 51 1013.5
20260507230921 68 360 6.0 12.0 0.00 0.46 0.31 51 1013.6
20260507230829 69 322 5.0 12.0 0.00 0.46 0.31 50 1013.6
20260507230721 69 346 5.0 12.0 0.00 0.46 0.31 51 1013.7
20260507230628 69 313 6.0 12.0 0.00 0.46 0.31 50 1013.6
20260507230600 69 325 7.0 12.0 0.00 0.46 0.31 50 1013.6
20260507230313 69 315 8.0 12.0 0.00 0.46 0.31 50 1013.5
20260507230224 69 298 7.0 12.0 0.00 0.46 0.31 50 1013.5
20260507230113 69 324 8.0 12.0 0.00 0.46 0.31 52 1013.4
20260507230021 69 346 7.0 12.0 0.00 0.46 0.31 52 1013.5
20260507225928 69 278 4.0 11.0 0.00 0.46 0.31 52 1013.5
20260507225817 69 340 4.0 12.0 0.00 0.46 0.31 52 1013.4
20260507225744 69 302 5.0 13.0 0.00 0.46 0.31 52 1013.4
20260507225612 69 350 6.0 13.0 0.00 0.46 0.31 52 1013.4
20260507225521 69 327 6.0 13.0 0.00 0.46 0.31 52 1013.4
20260507225430 69 360 6.0 13.0 0.00 0.46 0.31 52 1013.4
20260507225317 69 347 6.0 13.0 0.00 0.46 0.31 51 1013.5
20260507225225 69 311 8.0 13.0 0.00 0.46 0.31 50 1013.5
20260507225115 69 308 9.0 13.0 0.00 0.46 0.31 50 1013.5
20260507225045 69 344 9.0 13.0 0.00 0.46 0.31 51 1013.5
20260507224819 70 294 7.0 11.0 0.00 0.46 0.31 51 1013.4
20260507224725 70 307 7.0 11.0 0.00 0.46 0.31 51 1013.4
20260507224634 70 322 7.0 11.0 0.00 0.46 0.31 50 1013.4
20260507224524 70 330 6.0 11.0 0.00 0.46 0.31 51 1013.4
20260507224432 70 327 7.0 11.0 0.00 0.55 0.31 51 1013.4
20260507224319 70 317 7.0 11.0 0.00 0.55 0.31 50 1013.5
20260507224227 70 320 8.0 11.0 0.00 0.55 0.31 50 1013.5
20260507224114 70 302 7.0 11.0 0.00 0.55 0.31 51 1013.5
20260507224042 70 325 6.0 12.0 0.00 0.55 0.31 51 1013.5
20260507223948 70 326 6.0 12.0 0.00 0.55 0.31 51 1013.6
20260507223818 70 341 4.0 12.0 0.00 0.55 0.31 51 1013.5
20260507223725 70 322 5.0 12.0 0.00 0.55 0.31 51 1013.5
20260507223614 70 336 7.0 12.0 0.00 0.55 0.31 50 1013.6
20260507223545 70 317 7.0 12.0 0.00 0.55 0.31 50 1013.6
20260507223321 71 319 8.0 12.0 0.00 0.55 0.31 50 1013.5
20260507223229 71 320 7.0 12.0 0.00 0.55 0.31 50 1013.5
20260507223118 71 319 7.0 11.0 0.00 0.55 0.31 51 1013.5
20260507223025 71 338 6.0 11.0 0.00 0.55 0.31 51 1013.5
20260507222911 71 348 5.0 10.0 0.00 0.55 0.31 52 1013.5
20260507222820 71 306 5.0 10.0 0.00 0.55 0.31 51 1013.4
20260507222711 71 325 5.0 10.0 0.00 0.55 0.31 51 1013.4
20260507222619 71 342 5.0 11.0 0.00 0.55 0.31 50 1013.4
20260507222525 71 307 5.0 11.0 0.00 0.55 0.31 50 1013.4
20260507222432 71 329 5.0 11.0 0.00 0.55 0.31 50 1013.4
20260507222319 71 275 5.0 11.0 0.00 0.55 0.31 51 1013.3
20260507222226 71 302 6.0 11.0 0.00 0.55 0.31 51 1013.3
20260507222137 71 279 6.0 11.0 0.00 0.55 0.31 50 1013.3
20260507222046 71 248 6.0 11.0 0.00 0.55 0.31 52 1013.2
20260507221841 71 331 7.0 11.0 0.00 0.55 0.31 52 1013.3
20260507221727 71 309 7.0 11.0 0.00 0.55 0.31 51 1013.3
20260507221634 71 339 5.0 10.0 0.00 0.55 0.31 51 1013.3
20260507221525 71 329 5.0 10.0 0.00 0.55 0.31 51 1013.3
20260507221411 71 331 5.0 11.0 0.00 0.55 0.31 51 1013.2
20260507221320 72 329 4.0 11.0 0.00 0.55 0.31 51 1013.2
20260507221227 72 5 6.0 11.0 0.00 0.55 0.31 51 1013.2
20260507221113 72 331 6.0 11.0 0.00 0.55 0.31 50 1013.3
20260507221020 72 313 4.0 11.0 0.00 0.55 0.31 50 1013.3
20260507220931 72 334 3.0 11.0 0.00 0.55 0.31 49 1013.3
20260507220818 72 310 5.0 11.0 0.00 0.55 0.31 49 1013.4
20260507220725 72 331 6.0 11.0 0.00 0.55 0.31 49 1013.4
20260507220612 72 348 7.0 11.0 0.00 0.55 0.31 49 1013.4
20260507220548 72 322 6.0 10.0 0.00 0.55 0.31 49 1013.4
20260507220319 72 326 6.0 10.0 0.00 0.55 0.31 49 1013.4
20260507220227 72 338 5.0 10.0 0.00 0.55 0.31 50 1013.4
20260507220115 72 268 3.0 9.0 0.00 0.55 0.31 50 1013.5
20260507220021 72 325 3.0 11.0 0.00 0.55 0.31 50 1013.5
20260507215913 72 318 3.0 11.0 0.00 0.55 0.31 51 1013.3
20260507215821 72 325 4.0 11.0 0.00 0.55 0.31 52 1013.3
20260507215727 72 329 4.0 11.0 0.00 0.55 0.31 50 1013.3
20260507215615 72 26 4.0 11.0 0.00 0.55 0.31 50 1013.3
20260507215522 72 5 4.0 11.0 0.00 0.55 0.31 50 1013.3
20260507215430 72 343 5.0 11.0 0.00 0.55 0.31 50 1013.3
20260507215320 72 346 7.0 11.0 0.00 0.55 0.31 51 1013.3
20260507215228 72 339 6.0 11.0 0.00 0.55 0.31 52 1013.3
20260507215136 72 355 6.0 12.0 0.00 0.55 0.31 51 1013.3
20260507215107 72 338 5.0 12.0 0.00 0.55 0.31 51 1013.2
20260507214840 72 336 5.0 12.0 0.00 0.55 0.31 51 1013.4
20260507214724 72 294 6.0 12.0 0.00 0.55 0.31 50 1013.4
20260507214617 72 304 6.0 12.0 0.00 0.55 0.31 50 1013.4
20260507214523 72 284 6.0 12.0 0.00 0.55 0.31 50 1013.4
20260507214430 72 302 7.0 12.0 0.00 0.55 0.31 50 1013.3
20260507214318 73 303 6.0 12.0 0.00 0.82 0.31 50 1013.2
20260507214226 72 274 4.0 12.0 0.00 0.82 0.31 51 1013.2
20260507214116 72 323 4.0 12.0 0.00 0.82 0.31 51 1013.1
20260507214045 72 333 5.0 12.0 0.00 0.82 0.31 50 1013.1
20260507213911 72 316 5.0 12.0 0.00 0.82 0.31 51 1013.2
20260507213818 72 329 5.0 12.0 0.00 0.82 0.31 50 1013.2
20260507213745 72 323 5.0 12.0 0.00 0.82 0.31 50 1013.2
20260507213612 72 317 5.0 12.0 0.00 0.82 0.31 50 1013.2
20260507213546 72 319 5.0 12.0 0.00 0.82 0.31 52 1013.2
20260507213319 72 325 5.0 11.0 0.00 0.82 0.31 52 1013.2
20260507213227 72 331 5.0 11.0 0.00 0.82 0.31 52 1013.2
20260507213114 72 355 5.0 11.0 0.00 0.82 0.31 52 1013.3
20260507213023 72 355 7.0 11.0 0.00 0.82 0.31 51 1013.3
20260507212915 72 342 8.0 11.0 0.00 0.82 0.31 51 1013.3
20260507212822 72 360 7.0 10.0 0.00 0.82 0.31 50 1013.3
20260507212729 72 331 4.0 10.0 0.00 0.82 0.31 50 1013.3
20260507212617 72 294 4.0 11.0 0.00 0.82 0.31 49 1013.2
20260507212525 72 9 5.0 14.0 0.00 0.82 0.31 49 1013.2
20260507212417 72 76 6.0 14.0 0.00 0.82 0.31 50 1013.3
20260507212344 72 279 6.0 14.0 0.00 0.82 0.31 50 1013.3
20260507212251 72 329 7.0 14.0 0.00 0.82 0.31 50 1013.3
20260507212117 72 294 6.0 14.0 0.00 0.82 0.31 51 1013.3
20260507212047 72 307 7.0 14.0 0.00 0.82 0.31 51 1013.3
20260507211821 72 314 8.0 14.0 0.00 0.82 0.31 51 1013.3
20260507211712 72 320 6.0 14.0 0.00 0.82 0.31 51 1013.2
20260507211640 72 304 5.0 11.0 0.00 0.82 0.31 51 1013.1
20260507211527 72 319 5.0 11.0 0.00 0.82 0.31 51 1013.1
20260507211413 72 275 6.0 13.0 0.00 0.82 0.31 50 1013.3
20260507211321 72 309 6.0 13.0 0.00 0.82 0.31 51 1013.3
20260507211212 72 267 6.0 13.0 0.00 0.82 0.31 50 1013.3
20260507211118 72 296 7.0 13.0 0.00 0.82 0.31 51 1013.2
20260507211024 72 253 6.0 13.0 0.00 0.82 0.31 51 1013.2
20260507210912 72 243 6.0 13.0 0.00 0.82 0.31 51 1013.3
20260507210820 72 292 5.0 13.0 0.00 0.82 0.31 51 1013.2
20260507210727 72 346 6.0 13.0 0.00 0.82 0.31 52 1013.2
20260507210620 72 304 5.0 13.0 0.00 0.82 0.31 52 1013.2
20260507210548 72 338 5.0 13.0 0.00 0.82 0.31 51 1013.2
20260507210322 72 300 5.0 13.0 0.00 0.82 0.31 51 1013.2
20260507210229 72 311 7.0 13.0 0.00 0.82 0.31 50 1013.3
20260507210116 72 311 7.0 13.0 0.00 0.82 0.31 50 1013.2
20260507210027 72 309 6.0 13.0 0.00 0.82 0.31 52 1013.2
20260507205914 72 308 6.0 10.0 0.00 0.82 0.31 54 1013.2
20260507205822 71 5 6.0 10.0 0.00 0.82 0.31 54 1013.2
20260507205711 71 349 6.0 9.0 0.00 0.82 0.31 55 1013.2
20260507205619 71 355 6.0 9.0 0.00 0.82 0.31 54 1013.2
20260507205510 71 13 5.0 9.0 0.00 0.82 0.31 54 1013.4
20260507205417 71 16 4.0 9.0 0.00 0.82 0.31 54 1013.3
20260507205326 71 344 4.0 10.0 0.00 0.82 0.31 54 1013.3
20260507205234 71 319 4.0 10.0 0.00 0.82 0.31 56 1013.3
20260507205119 71 360 4.0 10.0 0.00 0.82 0.31 53 1013.4
20260507205054 71 360 4.0 10.0 0.00 0.82 0.31 53 1013.4
20260507204828 71 355 4.0 10.0 0.00 0.82 0.31 54 1013.4
20260507204715 71 310 5.0 10.0 0.00 0.82 0.31 54 1013.3
20260507204623 71 332 6.0 10.0 0.00 0.82 0.31 54 1013.3
20260507204511 70 338 6.0 10.0 0.00 0.82 0.31 54 1013.4
20260507204421 70 328 6.0 10.0 0.00 0.82 0.31 54 1013.4
20260507204328 70 311 6.0 10.0 0.00 1.21 0.31 54 1013.3
20260507204216 70 243 6.0 10.0 0.00 1.21 0.31 55 1013.2
20260507204124 70 294 5.0 10.0 0.00 1.21 0.31 55 1013.2
20260507204012 70 331 5.0 10.0 0.00 1.21 0.31 56 1013.3
20260507203919 70 297 4.0 10.0 0.00 1.21 0.31 57 1013.3
20260507203830 70 355 4.0 10.0 0.00 1.21 0.31 57 1013.3
20260507203738 70 336 4.0 10.0 0.00 1.21 0.31 56 1013.2
20260507203706 70 360 6.0 11.0 0.00 1.21 0.31 54 1013.3
20260507203614 70 355 6.0 12.0 0.00 1.21 0.31 54 1013.3
20260507203347 70 321 7.0 12.0 0.00 1.21 0.31 54 1013.3
20260507203234 70 319 7.0 13.0 0.00 1.21 0.31 54 1013.3
20260507203124 70 331 6.0 13.0 0.00 1.21 0.31 53 1013.3
20260507203011 70 288 7.0 13.0 0.00 1.21 0.31 52 1013.4
20260507202919 71 323 8.0 13.0 0.00 1.21 0.31 53 1013.4
20260507202825 71 325 9.0 13.0 0.00 1.21 0.31 53 1013.4
20260507202713 71 347 8.0 13.0 0.00 1.21 0.31 53 1013.4
20260507202624 71 335 9.0 13.0 0.00 1.21 0.31 54 1013.4
20260507202512 71 350 10.0 13.0 0.00 1.21 0.31 54 1013.4
20260507202420 71 335 10.0 13.0 0.00 1.21 0.31 54 1013.3
20260507202347 71 328 8.0 13.0 0.00 1.21 0.31 55 1013.3
20260507202213 71 355 5.0 10.0 0.00 1.21 0.31 54 1013.3
20260507202121 71 302 4.0 10.0 0.00 1.21 0.31 53 1013.3
20260507202056 71 312 4.0 12.0 0.00 1.21 0.31 53 1013.3
20260507201830 71 342 4.0 12.0 0.00 1.21 0.31 54 1013.4
20260507201718 70 319 5.0 12.0 0.00 1.21 0.31 55 1013.4
20260507201646 70 330 5.0 12.0 0.00 1.21 0.31 55 1013.4
20260507201551 70 298 6.0 12.0 0.00 1.21 0.31 55 1013.4
20260507201421 70 319 7.0 12.0 0.00 1.21 0.31 54 1013.3
20260507201328 70 288 8.0 12.0 0.00 1.21 0.31 55 1013.5
20260507201216 70 284 7.0 12.0 0.00 1.21 0.31 55 1013.4
20260507201123 70 277 5.0 11.0 0.00 1.21 0.31 57 1013.4
20260507201029 70 267 4.0 11.0 0.00 1.21 0.31 57 1013.4
20260507200916 70 350 4.0 11.0 0.00 1.21 0.31 55 1013.5
20260507200847 70 333 4.0 11.0 0.00 1.21 0.31 54 1013.5
20260507200713 70 332 7.0 11.0 0.00 1.21 0.31 54 1013.5
20260507200622 70 325 7.0 12.0 0.00 1.21 0.31 53 1013.5
20260507200552 70 339 7.0 12.0 0.00 1.21 0.31 54 1013.5
20260507200311 71 338 6.0 12.0 0.00 1.21 0.31 55 1013.4
20260507200219 71 350 6.0 12.0 0.00 1.21 0.31 55 1013.5
20260507200127 71 324 6.0 13.0 0.00 1.21 0.31 55 1013.5
20260507200013 71 29 8.0 13.0 0.00 1.21 0.31 55 1013.5
20260507195940 71 355 8.0 13.0 0.00 1.21 0.31 56 1013.4
20260507195828 71 324 9.0 13.0 0.00 1.21 0.31 57 1013.4
20260507195720 71 321 8.0 13.0 0.00 1.21 0.31 58 1013.3
20260507195628 71 21 7.0 13.0 0.00 1.21 0.31 59 1013.3
20260507195517 71 345 8.0 13.0 0.00 1.21 0.31 57 1013.3
20260507195425 70 338 8.0 13.0 0.00 1.21 0.31 58 1013.3
20260507195311 70 321 6.0 13.0 0.00 1.21 0.31 58 1013.3
20260507195219 70 292 4.0 11.0 0.00 1.21 0.31 58 1013.4
20260507195129 70 322 6.0 13.0 0.00 1.21 0.31 58 1013.4
20260507195100 70 344 7.0 13.0 0.00 1.21 0.31 58 1013.4
20260507194814 70 330 8.0 13.0 0.00 1.21 0.31 56 1013.4
20260507194722 70 340 8.0 13.0 0.00 1.21 0.31 54 1013.4
20260507194633 71 336 8.0 13.0 0.00 1.21 0.31 55 1013.4
20260507194519 71 302 8.0 13.0 0.00 1.21 0.31 57 1013.3
20260507194427 71 315 9.0 13.0 0.00 1.21 0.31 58 1013.3
20260507194333 71 337 8.0 13.0 0.00 1.30 0.31 57 1013.4
20260507194220 71 348 9.0 12.0 0.00 1.30 0.31 56 1013.4
20260507194128 71 351 8.0 12.0 0.00 1.30 0.31 56 1013.4
20260507194020 71 355 5.0 12.0 0.00 1.30 0.31 58 1013.4
20260507193928 71 333 5.0 14.0 0.00 1.30 0.31 58 1013.4
20260507193815 71 332 6.0 14.0 0.00 1.30 0.31 56 1013.4
20260507193724 71 320 6.0 14.0 0.00 1.30 0.31 58 1013.4
20260507193651 71 355 7.0 14.0 0.00 1.30 0.31 58 1013.5
20260507193624 71 345 8.0 14.0 0.00 1.30 0.31 55 1013.5
20260507193337 71 315 9.0 14.0 0.00 1.30 0.31 57 1013.4
20260507193224 71 317 8.0 14.0 0.00 1.30 0.31 59 1013.4
20260507193111 71 355 7.0 14.0 0.00 1.30 0.31 57 1013.4
20260507193019 71 348 9.0 14.0 0.00 1.30 0.31 57 1013.4
20260507192926 71 334 11.0 14.0 0.00 1.30 0.31 57 1013.4
20260507192818 71 335 9.0 14.0 0.00 1.30 0.31 55 1013.4
20260507192727 71 309 9.0 14.0 0.00 1.30 0.31 55 1013.4
20260507192615 71 311 9.0 14.0 0.00 1.30 0.31 55 1013.3
20260507192523 71 328 9.0 14.0 0.00 1.30 0.31 55 1013.3
20260507192450 71 330 7.0 12.0 0.00 1.30 0.31 56 1013.3
20260507192337 71 329 6.0 12.0 0.00 1.30 0.31 56 1013.2
20260507192226 71 325 5.0 12.0 0.00 1.30 0.31 56 1013.2
20260507192155 71 348 5.0 12.0 0.00 1.30 0.31 56 1013.3
20260507192125 71 355 6.0 12.0 0.00 1.30 0.31 57 1013.2
20260507191818 71 360 7.0 12.0 0.00 1.30 0.31 57 1013.4
20260507191725 71 321 7.0 12.0 0.00 1.30 0.31 57 1013.4
20260507191617 71 341 7.0 12.0 0.00 1.30 0.31 59 1013.2
20260507191525 71 332 8.0 12.0 0.00 1.30 0.31 57 1013.2
20260507191412 71 355 8.0 12.0 0.00 1.30 0.31 55 1013.3
20260507191340 71 321 9.0 12.0 0.00 1.30 0.31 56 1013.3
20260507191246 71 313 8.0 12.0 0.00 1.30 0.31 56 1013.3
20260507191111 71 334 7.0 12.0 0.00 1.30 0.31 57 1013.3
20260507191039 71 265 5.0 12.0 0.00 1.30 0.31 57 1013.3
20260507190928 71 319 5.0 12.0 0.00 1.30 0.31 57 1013.3
20260507190816 70 306 6.0 9.0 0.00 1.30 0.31 58 1013.3
20260507190744 70 16 6.0 9.0 0.00 1.30 0.31 59 1013.3
20260507190611 70 355 5.0 10.0 0.00 1.30 0.31 60 1013.2
20260507190546 70 23 5.0 10.0 0.00 1.30 0.31 60 1013.2
20260507190319 70 290 4.0 11.0 0.00 1.30 0.31 57 1013.3
20260507190227 70 351 3.0 11.0 0.00 1.30 0.31 58 1013.3
20260507190113 70 57 2.0 11.0 0.00 1.30 0.31 58 1013.4
20260507190021 70 346 3.0 11.0 0.00 1.30 0.31 58 1013.4
20260507185930 70 24 4.0 11.0 0.00 1.30 0.31 59 1013.3
20260507185823 70 339 6.0 11.0 0.00 1.30 0.31 59 1013.3
20260507185729 70 306 8.0 11.0 0.00 1.30 0.31 59 1013.3
20260507185618 70 355 7.0 11.0 0.00 1.30 0.31 59 1013.3
20260507185525 70 330 7.0 10.0 0.00 1.30 0.31 57 1013.3
20260507185411 70 360 6.0 10.0 0.00 1.30 0.31 57 1013.3
20260507185322 70 36 5.0 12.0 0.00 1.30 0.31 59 1013.3
20260507185229 70 46 3.0 12.0 0.00 1.30 0.31 59 1013.3
20260507185118 70 344 3.0 12.0 0.00 1.30 0.31 59 1013.4
20260507185047 70 342 3.0 12.0 0.00 1.30 0.31 58 1013.4
20260507184822 70 304 5.0 12.0 0.00 1.30 0.31 58 1013.4
20260507184713 70 321 6.0 12.0 0.00 1.30 0.31 58 1013.5
20260507184640 70 298 6.0 12.0 0.00 1.30 0.31 58 1013.4
20260507184547 70 327 7.0 14.0 0.00 1.30 0.31 57 1013.4
20260507184413 70 192 7.0 15.0 0.00 1.50 0.31 58 1013.4
20260507184341 70 322 7.0 17.0 0.00 1.50 0.31 57 1013.4
20260507184227 70 300 5.0 17.0 0.00 1.50 0.31 57 1013.4
20260507184119 70 273 5.0 17.0 0.00 1.50 0.31 57 1013.4
20260507184027 70 295 7.0 17.0 0.00 1.50 0.31 59 1013.4
20260507183913 70 339 9.0 17.0 0.00 1.50 0.31 59 1013.4
20260507183821 70 17 9.0 17.0 0.00 1.50 0.31 59 1013.4
20260507183730 70 338 10.0 17.0 0.00 1.50 0.31 59 1013.4
20260507183617 70 319 9.0 17.0 0.00 1.50 0.31 59 1013.3
20260507183551 70 329 8.0 17.0 0.00 1.50 0.31 59 1013.3
20260507183324 69 330 5.0 12.0 0.00 1.50 0.31 58 1013.3
20260507183210 69 57 6.0 12.0 0.00 1.50 0.31 59 1013.4
20260507183118 69 324 7.0 12.0 0.00 1.50 0.31 60 1013.3
20260507183030 69 325 6.0 12.0 0.00 1.50 0.31 60 1013.3
20260507182918 69 336 7.0 14.0 0.00 1.50 0.31 60 1013.2
20260507182825 69 325 6.0 14.0 0.00 1.50 0.31 61 1013.2
20260507182711 69 5 8.0 14.0 0.00 1.50 0.31 61 1013.4
20260507182639 69 344 7.0 14.0 0.00 1.50 0.31 61 1013.4
20260507182525 69 336 5.0 14.0 0.00 1.50 0.31 60 1013.4
20260507182417 69 308 5.0 14.0 0.00 1.50 0.31 61 1013.4
20260507182325 69 15 6.0 14.0 0.00 1.50 0.31 60 1013.4
20260507182212 69 17 7.0 14.0 0.00 1.50 0.31 60 1013.5
20260507182121 69 355 8.0 14.0 0.00 1.50 0.31 62 1013.5
20260507182055 69 20 9.0 14.0 0.00 1.50 0.31 61 1013.6
20260507181829 69 5 8.0 14.0 0.00 1.50 0.31 63 1013.7
20260507181716 68 20 8.0 14.0 0.00 1.50 0.31 62 1013.6
20260507181625 68 23 9.0 14.0 0.00 1.50 0.31 62 1013.6
20260507181512 68 346 8.0 14.0 0.00 1.50 0.31 61 1013.6
20260507181418 68 26 8.0 14.0 0.00 1.50 0.31 61 1013.6
20260507181311 68 296 6.0 14.0 0.00 1.50 0.31 62 1013.6
20260507181219 68 315 6.0 14.0 0.00 1.50 0.31 61 1013.6
20260507181127 68 316 7.0 14.0 0.00 1.50 0.31 59 1013.6
20260507181033 68 317 9.0 14.0 0.00 1.50 0.31 61 1013.8
20260507180919 68 319 8.0 14.0 0.00 1.50 0.31 60 1013.8
20260507180845 68 313 7.0 14.0 0.00 1.50 0.31 60 1013.8
20260507180714 68 311 8.0 14.0 0.00 1.50 0.31 61 1013.9
20260507180621 68 299 9.0 14.0 0.00 1.50 0.31 62 1013.9
20260507180552 68 304 8.0 14.0 0.00 1.50 0.31 62 1013.9
20260507180326 68 350 6.0 13.0 0.00 1.50 0.31 62 1014.0
20260507180218 68 344 5.0 12.0 0.00 1.50 0.31 63 1014.0
20260507180124 68 355 6.0 12.0 0.00 1.50 0.31 63 1014.0
20260507180011 68 355 7.0 12.0 0.00 1.50 0.31 61 1014.1
20260507175919 68 345 8.0 12.0 0.00 1.50 0.31 62 1014.1
20260507175827 68 314 7.0 12.0 0.00 1.50 0.31 62 1014.1
20260507175714 67 328 8.0 12.0 0.00 1.50 0.31 63 1014.1
20260507175625 67 11 7.0 13.0 0.00 1.50 0.31 63 1014.1
20260507175512 67 5 5.0 13.0 0.00 1.50 0.31 62 1014.1
20260507175439 67 39 5.0 13.0 0.00 1.50 0.31 63 1014.1
20260507175326 67 25 7.0 13.0 0.00 1.50 0.31 61 1014.1
20260507175232 67 355 6.0 13.0 0.00 1.50 0.31 62 1014.2
20260507175118 67 34 7.0 13.0 0.00 1.50 0.31 63 1014.2
20260507175053 67 16 7.0 13.0 0.00 1.50 0.31 61 1014.2
20260507174827 67 5 8.0 13.0 0.00 1.50 0.31 60 1014.2
20260507174715 67 321 7.0 15.0 0.00 1.50 0.31 60 1014.2
20260507174622 67 319 6.0 15.0 0.00 1.50 0.31 60 1014.2
20260507174514 67 340 7.0 15.0 0.00 1.50 0.31 62 1014.2
20260507174441 67 344 8.0 15.0 0.00 1.50 0.31 62 1014.3
20260507174328 67 331 6.0 15.0 0.00 1.99 0.31 62 1014.3
20260507174216 67 348 6.0 15.0 0.00 1.99 0.31 60 1014.3
20260507174124 67 317 7.0 15.0 0.00 1.99 0.31 61 1014.3
20260507174030 68 323 8.0 15.0 0.00 1.99 0.31 61 1014.4
20260507173922 68 329 9.0 15.0 0.00 1.99 0.31 62 1014.4
20260507173830 67 360 7.0 15.0 0.00 1.99 0.31 62 1014.4
20260507173718 67 355 6.0 12.0 0.00 1.99 0.31 62 1014.4
20260507173625 67 360 7.0 12.0 0.00 1.99 0.31 63 1014.4
20260507173555 67 355 7.0 12.0 0.00 1.99 0.31 63 1014.4
20260507173312 67 360 7.0 12.0 0.00 1.99 0.31 61 1014.4
20260507173219 67 312 7.0 12.0 0.00 1.99 0.31 62 1014.4
20260507173127 67 306 6.0 12.0 0.00 1.99 0.31 63 1014.4
20260507173015 67 360 5.0 12.0 0.00 1.99 0.31 61 1014.4
20260507172923 67 9 5.0 12.0 0.00 1.99 0.31 61 1014.4
20260507172814 67 329 5.0 12.0 0.00 1.99 0.31 60 1014.4
20260507172742 67 360 5.0 12.0 0.00 1.99 0.31 59 1014.4
20260507172629 67 305 5.0 12.0 0.00 1.99 0.31 59 1014.5
20260507172515 67 325 6.0 12.0 0.00 1.99 0.31 63 1014.6
20260507172443 67 340 7.0 12.0 0.00 1.99 0.31 63 1014.6
20260507172350 67 23 7.0 12.0 0.00 1.99 0.31 63 1014.6
20260507172216 67 355 6.0 11.0 0.00 1.99 0.31 62 1014.5
20260507172127 67 336 6.0 11.0 0.00 1.99 0.31 62 1014.5
20260507172057 67 337 7.0 11.0 0.00 1.99 0.31 62 1014.6
20260507171830 67 15 7.0 10.0 0.00 1.99 0.31 63 1014.4
20260507171717 67 342 8.0 10.0 0.00 1.99 0.31 64 1014.5
20260507171628 67 351 6.0 11.0 0.00 1.99 0.31 64 1014.5
20260507171515 67 19 6.0 11.0 0.00 1.99 0.31 63 1014.5
20260507171443 67 17 6.0 11.0 0.00 1.99 0.31 63 1014.5
20260507171329 67 349 6.0 11.0 0.00 1.99 0.31 63 1014.5
20260507171217 67 5 5.0 11.0 0.00 1.99 0.31 62 1014.5
20260507171125 66 21 5.0 11.0 0.00 1.99 0.31 62 1014.5
20260507171018 66 319 6.0 11.0 0.00 1.99 0.31 64 1014.6
20260507170924 66 40 7.0 12.0 0.00 1.99 0.31 64 1014.6
20260507170811 66 324 7.0 12.0 0.00 1.99 0.31 63 1014.5
20260507170718 66 18 6.0 12.0 0.00 1.99 0.31 63 1014.5
20260507170646 66 33 6.0 14.0 0.00 1.99 0.31 64 1014.5
20260507170559 66 23 7.0 14.0 0.00 1.99 0.31 63 1014.5
20260507170313 66 332 7.0 14.0 0.00 1.99 0.31 66 1014.4
20260507170220 66 340 7.0 14.0 0.00 1.99 0.31 66 1014.4
20260507170126 65 329 7.0 14.0 0.00 1.99 0.31 66 1014.4
20260507170013 65 5 9.0 16.0 0.00 1.99 0.31 64 1014.4
20260507165919 65 24 9.0 16.0 0.00 1.99 0.31 61 1014.5
20260507165811 66 338 9.0 16.0 0.00 1.99 0.31 61 1014.5
20260507165718 66 344 9.0 16.0 0.00 1.99 0.31 62 1014.6
20260507165627 66 345 10.0 16.0 0.00 1.99 0.31 64 1014.6
20260507165515 66 325 9.0 16.0 0.00 1.99 0.31 64 1014.7
20260507165421 66 341 10.0 16.0 0.00 1.99 0.31 65 1014.7
20260507165348 66 323 10.0 16.0 0.00 1.99 0.31 64 1014.7
20260507165218 66 360 10.0 16.0 0.00 1.99 0.31 64 1014.6
20260507165125 65 336 9.0 15.0 0.00 1.99 0.31 64 1014.6
20260507165055 65 323 9.0 13.0 0.00 1.99 0.31 64 1014.6
20260507164848 65 9 8.0 13.0 0.00 1.99 0.31 64 1014.6
20260507164715 65 342 6.0 13.0 0.00 1.99 0.31 66 1014.6
20260507164626 65 336 4.0 13.0 0.00 1.99 0.31 65 1014.6
20260507164535 65 25 5.0 13.0 0.00 1.99 0.31 65 1014.6
20260507164420 65 5 8.0 14.0 0.00 1.99 0.31 63 1014.7
20260507164326 65 5 9.0 14.0 0.00 1.99 0.31 65 1014.7
20260507164234 65 355 8.0 14.0 0.00 1.99 0.31 66 1014.8
20260507164121 65 5 7.0 15.0 0.00 1.99 0.31 65 1014.8